GEFSSE_prec_meanprecacc_210.txt.gz
Total_Precipitation_Accumulation
0.11 0.18 0.46 0.54 0.51 0.49 0.47 0.47 0.48 0.44 0.43 0.47 0.47 0.47 0.48 0.45 0.39 0.32 0.32 0.36 0.39 0.50 0.57 0.57 0.57 0.58 0.54 0.52 0.50 0.33 0.24 0.19 0.16 0.14 0.15 0.21 0.24 0.23 0.17 0.16 0.18 0.20 0.22
0.10 0.18 0.43 0.57 0.62 0.58 0.55 0.49 0.47 0.41 0.43 0.47 0.52 0.55 0.56 0.51 0.41 0.37 0.37 0.38 0.45 0.55 0.58 0.59 0.48 0.43 0.39 0.38 0.31 0.19 0.14 0.09 0.07 0.05 0.05 0.08 0.14 0.18 0.16 0.15 0.16 0.21 0.23
0.12 0.23 0.43 0.58 0.68 0.66 0.63 0.58 0.49 0.42 0.42 0.45 0.52 0.61 0.61 0.55 0.50 0.46 0.45 0.44 0.49 0.55 0.52 0.49 0.41 0.32 0.27 0.22 0.17 0.12 0.08 0.05 0.05 0.04 0.05 0.07 0.11 0.17 0.18 0.15 0.19 0.22 0.20
0.16 0.27 0.44 0.65 0.77 0.76 0.67 0.62 0.56 0.49 0.47 0.50 0.50 0.57 0.59 0.57 0.56 0.49 0.48 0.48 0.48 0.46 0.41 0.37 0.32 0.25 0.22 0.15 0.12 0.09 0.06 0.04 0.03 0.04 0.05 0.08 0.10 0.20 0.25 0.22 0.23 0.23 0.21
0.23 0.35 0.54 0.75 0.88 0.89 0.79 0.73 0.66 0.59 0.56 0.58 0.57 0.57 0.59 0.60 0.59 0.57 0.55 0.53 0.47 0.36 0.34 0.33 0.27 0.23 0.19 0.14 0.12 0.10 0.08 0.06 0.03 0.04 0.07 0.10 0.13 0.27 0.27 0.26 0.27 0.29 0.27
0.39 0.54 0.68 0.83 0.94 0.96 0.91 0.86 0.84 0.77 0.67 0.71 0.69 0.63 0.66 0.64 0.62 0.65 0.60 0.50 0.43 0.35 0.31 0.28 0.26 0.23 0.19 0.14 0.12 0.11 0.10 0.06 0.04 0.04 0.07 0.11 0.17 0.35 0.32 0.28 0.31 0.36 0.35
0.59 0.75 0.85 0.95 1.03 1.00 1.00 0.99 0.97 0.97 0.90 0.86 0.81 0.74 0.73 0.70 0.67 0.65 0.61 0.46 0.39 0.37 0.34 0.31 0.28 0.26 0.23 0.16 0.11 0.11 0.10 0.06 0.04 0.05 0.08 0.12 0.20 0.34 0.32 0.28 0.31 0.36 0.35
0.83 0.98 1.08 1.19 1.24 1.15 1.09 1.05 1.06 1.14 1.14 1.08 1.00 0.91 0.81 0.79 0.75 0.66 0.58 0.45 0.39 0.39 0.38 0.37 0.35 0.30 0.28 0.20 0.13 0.11 0.08 0.04 0.03 0.04 0.08 0.12 0.19 0.32 0.30 0.24 0.23 0.26 0.27
1.23 1.31 1.43 1.43 1.37 1.33 1.24 1.17 1.14 1.17 1.23 1.25 1.16 1.06 0.90 0.86 0.81 0.68 0.56 0.52 0.44 0.44 0.40 0.37 0.37 0.34 0.31 0.25 0.15 0.11 0.07 0.03 0.02 0.05 0.08 0.12 0.21 0.37 0.33 0.26 0.24 0.25 0.24
1.72 1.75 1.81 1.78 1.62 1.50 1.39 1.28 1.23 1.19 1.25 1.31 1.23 1.01 0.83 0.79 0.79 0.69 0.52 0.54 0.50 0.45 0.41 0.37 0.37 0.36 0.29 0.24 0.17 0.12 0.07 0.04 0.04 0.07 0.10 0.13 0.21 0.34 0.33 0.27 0.27 0.28 0.26
2.17 2.11 2.03 2.02 1.94 1.78 1.64 1.42 1.36 1.30 1.30 1.26 1.16 0.99 0.86 0.84 0.78 0.69 0.48 0.43 0.47 0.43 0.41 0.39 0.35 0.35 0.26 0.19 0.16 0.11 0.08 0.06 0.07 0.09 0.11 0.12 0.21 0.27 0.28 0.27 0.25 0.27 0.29
2.30 2.30 2.23 2.18 2.19 2.08 1.87 1.73 1.60 1.42 1.33 1.25 1.09 0.99 0.94 0.86 0.79 0.67 0.55 0.45 0.47 0.43 0.43 0.42 0.37 0.33 0.27 0.20 0.19 0.15 0.11 0.08 0.08 0.08 0.10 0.11 0.18 0.24 0.24 0.26 0.24 0.24 0.24
2.55 2.64 2.61 2.49 2.53 2.57 2.32 2.03 1.89 1.63 1.44 1.37 1.20 1.10 1.02 0.99 0.91 0.81 0.70 0.57 0.53 0.44 0.42 0.46 0.39 0.29 0.25 0.20 0.19 0.18 0.14 0.12 0.10 0.09 0.11 0.11 0.17 0.24 0.25 0.29 0.27 0.24 0.26
2.73 2.90 3.04 2.92 2.84 2.85 2.65 2.36 2.11 1.88 1.62 1.48 1.40 1.29 1.18 1.08 0.94 0.80 0.71 0.61 0.55 0.47 0.43 0.49 0.43 0.32 0.32 0.25 0.21 0.22 0.20 0.16 0.13 0.12 0.14 0.13 0.14 0.21 0.27 0.32 0.28 0.27 0.28
2.62 2.87 3.17 3.08 2.95 2.86 2.71 2.48 2.16 2.03 1.84 1.63 1.55 1.49 1.32 1.20 1.06 0.90 0.80 0.72 0.63 0.53 0.44 0.45 0.48 0.41 0.40 0.37 0.29 0.24 0.25 0.20 0.17 0.15 0.15 0.15 0.14 0.18 0.24 0.29 0.29 0.30 0.34
2.65 2.77 3.03 3.08 2.89 2.83 2.75 2.51 2.18 1.97 1.87 1.80 1.61 1.45 1.38 1.25 1.16 1.05 0.85 0.73 0.67 0.58 0.48 0.42 0.43 0.45 0.42 0.40 0.35 0.30 0.29 0.26 0.21 0.19 0.18 0.18 0.18 0.18 0.21 0.23 0.28 0.36 0.45
2.68 2.83 2.88 3.02 3.02 2.80 2.75 2.56 2.28 2.17 1.98 1.83 1.71 1.48 1.38 1.28 1.19 1.14 0.96 0.76 0.68 0.66 0.61 0.53 0.51 0.50 0.45 0.39 0.34 0.32 0.32 0.29 0.24 0.22 0.21 0.20 0.18 0.17 0.20 0.22 0.24 0.32 0.45
2.71 2.88 2.88 2.87 2.97 2.92 2.77 2.64 2.32 2.16 2.13 1.92 1.80 1.64 1.46 1.38 1.32 1.27 1.15 0.93 0.89 0.88 0.81 0.69 0.61 0.55 0.47 0.43 0.37 0.36 0.34 0.32 0.26 0.24 0.23 0.22 0.19 0.17 0.20 0.23 0.25 0.28 0.37
2.63 2.85 2.97 2.92 2.88 3.02 2.96 2.80 2.63 2.35 2.14 2.10 2.02 1.79 1.56 1.42 1.36 1.29 1.20 1.14 1.13 1.06 0.96 0.83 0.72 0.64 0.53 0.49 0.45 0.42 0.42 0.40 0.33 0.29 0.28 0.27 0.25 0.23 0.23 0.25 0.29 0.28 0.28
2.62 2.82 2.98 2.95 2.89 3.08 3.24 3.06 2.80 2.58 2.23 2.01 2.00 1.84 1.66 1.56 1.43 1.33 1.23 1.23 1.28 1.22 1.09 0.99 0.85 0.74 0.66 0.61 0.59 0.49 0.46 0.47 0.41 0.33 0.30 0.28 0.27 0.27 0.26 0.25 0.26 0.26 0.25
2.55 2.71 2.89 2.94 2.89 2.88 2.99 2.94 2.68 2.42 2.25 2.00 1.91 1.91 1.79 1.70 1.71 1.57 1.35 1.33 1.36 1.26 1.15 1.11 1.07 0.97 0.85 0.78 0.73 0.59 0.50 0.44 0.41 0.33 0.28 0.27 0.25 0.26 0.26 0.27 0.26 0.25 0.23
2.25 2.55 2.75 2.90 2.99 2.80 2.63 2.71 2.69 2.56 2.36 2.18 2.06 2.04 1.88 1.77 1.71 1.68 1.63 1.54 1.53 1.47 1.39 1.28 1.24 1.18 1.06 0.99 0.92 0.84 0.64 0.50 0.40 0.34 0.30 0.28 0.26 0.27 0.27 0.27 0.27 0.27 0.25
1.92 2.21 2.48 2.70 2.87 2.95 2.84 2.88 2.81 2.67 2.41 2.14 1.93 1.90 1.89 1.84 1.77 1.67 1.69 1.71 1.69 1.63 1.51 1.44 1.37 1.32 1.28 1.19 1.10 1.12 0.87 0.61 0.46 0.41 0.36 0.32 0.30 0.29 0.30 0.31 0.30 0.30 0.29
1.65 1.87 2.09 2.42 2.68 2.83 2.92 2.81 2.66 2.46 2.19 1.90 1.86 1.96 1.97 1.89 1.81 1.73 1.68 1.70 1.74 1.68 1.60 1.62 1.61 1.44 1.42 1.38 1.31 1.17 1.00 0.80 0.71 0.56 0.45 0.42 0.39 0.35 0.34 0.35 0.33 0.32 0.32
1.45 1.67 1.80 2.01 2.34 2.48 2.45 2.46 2.48 2.34 2.14 2.00 1.93 1.89 1.87 1.79 1.73 1.67 1.64 1.66 1.65 1.65 1.62 1.65 1.69 1.66 1.55 1.48 1.42 1.35 1.29 1.11 0.94 0.86 0.68 0.55 0.53 0.47 0.44 0.44 0.43 0.42 0.39
1.19 1.42 1.60 1.66 1.87 2.09 2.09 2.13 2.21 2.09 1.97 1.88 1.77 1.74 1.75 1.69 1.59 1.53 1.49 1.52 1.55 1.55 1.54 1.58 1.67 1.73 1.71 1.57 1.44 1.32 1.28 1.21 1.07 1.03 0.92 0.72 0.64 0.55 0.52 0.49 0.47 0.49 0.53

GEFSSE_prec_meanprecacc_216.txt.gz
Total_Precipitation_Accumulation
0.11 0.19 0.47 0.55 0.52 0.51 0.50 0.49 0.51 0.47 0.46 0.51 0.52 0.51 0.51 0.49 0.43 0.35 0.35 0.39 0.44 0.55 0.61 0.62 0.61 0.63 0.57 0.54 0.52 0.34 0.25 0.20 0.17 0.15 0.16 0.22 0.25 0.23 0.18 0.18 0.20 0.21 0.25
0.10 0.19 0.43 0.58 0.64 0.61 0.58 0.52 0.49 0.44 0.45 0.50 0.56 0.59 0.60 0.55 0.44 0.40 0.40 0.41 0.49 0.61 0.63 0.65 0.53 0.48 0.44 0.41 0.33 0.20 0.15 0.09 0.07 0.06 0.06 0.09 0.15 0.19 0.17 0.16 0.18 0.23 0.25
0.12 0.23 0.43 0.59 0.71 0.68 0.66 0.60 0.51 0.44 0.45 0.48 0.56 0.65 0.66 0.61 0.55 0.51 0.49 0.48 0.54 0.61 0.58 0.55 0.47 0.39 0.32 0.25 0.19 0.13 0.09 0.06 0.05 0.05 0.06 0.08 0.11 0.17 0.19 0.16 0.20 0.25 0.23
0.17 0.27 0.44 0.66 0.80 0.79 0.70 0.65 0.58 0.51 0.49 0.53 0.53 0.60 0.62 0.63 0.63 0.56 0.54 0.54 0.54 0.51 0.47 0.42 0.36 0.30 0.26 0.18 0.13 0.10 0.07 0.05 0.04 0.05 0.06 0.09 0.12 0.22 0.27 0.23 0.25 0.26 0.24
0.25 0.37 0.55 0.77 0.91 0.93 0.83 0.77 0.69 0.61 0.58 0.60 0.60 0.60 0.62 0.64 0.65 0.65 0.63 0.61 0.55 0.42 0.38 0.36 0.30 0.26 0.22 0.17 0.13 0.11 0.09 0.07 0.04 0.05 0.08 0.12 0.17 0.31 0.31 0.29 0.30 0.32 0.30
0.41 0.57 0.70 0.85 0.97 1.00 0.95 0.88 0.86 0.78 0.69 0.73 0.72 0.66 0.68 0.67 0.68 0.71 0.66 0.57 0.51 0.43 0.36 0.31 0.28 0.26 0.22 0.18 0.15 0.13 0.11 0.07 0.04 0.06 0.09 0.13 0.20 0.38 0.36 0.33 0.36 0.40 0.38
0.61 0.76 0.86 0.98 1.06 1.04 1.03 1.01 0.99 0.99 0.92 0.88 0.85 0.78 0.77 0.74 0.72 0.71 0.67 0.52 0.44 0.43 0.40 0.35 0.32 0.29 0.26 0.19 0.15 0.13 0.11 0.07 0.05 0.07 0.10 0.15 0.23 0.37 0.35 0.32 0.35 0.40 0.38
0.84 0.99 1.10 1.22 1.28 1.18 1.11 1.08 1.08 1.17 1.17 1.11 1.05 0.97 0.87 0.84 0.79 0.71 0.65 0.51 0.44 0.43 0.43 0.41 0.38 0.33 0.31 0.24 0.17 0.14 0.10 0.04 0.04 0.06 0.10 0.15 0.23 0.34 0.34 0.29 0.29 0.31 0.30
1.24 1.32 1.45 1.46 1.39 1.35 1.26 1.20 1.16 1.19 1.25 1.28 1.21 1.13 0.98 0.92 0.86 0.74 0.64 0.60 0.50 0.49 0.45 0.42 0.42 0.39 0.35 0.29 0.20 0.15 0.09 0.04 0.04 0.07 0.10 0.14 0.23 0.39 0.38 0.31 0.29 0.28 0.27
1.72 1.76 1.83 1.80 1.64 1.52 1.41 1.30 1.25 1.21 1.27 1.34 1.27 1.07 0.90 0.87 0.86 0.75 0.58 0.61 0.58 0.51 0.46 0.42 0.42 0.41 0.34 0.28 0.21 0.16 0.10 0.05 0.05 0.08 0.11 0.14 0.23 0.37 0.39 0.34 0.32 0.32 0.29
2.18 2.13 2.05 2.05 1.96 1.80 1.66 1.43 1.37 1.32 1.34 1.30 1.21 1.06 0.94 0.91 0.85 0.75 0.52 0.48 0.54 0.50 0.46 0.43 0.40 0.40 0.30 0.23 0.20 0.13 0.10 0.08 0.08 0.10 0.12 0.14 0.24 0.31 0.34 0.31 0.30 0.31 0.31
2.32 2.32 2.25 2.21 2.22 2.10 1.89 1.75 1.62 1.45 1.37 1.30 1.14 1.04 1.03 0.96 0.89 0.76 0.60 0.48 0.52 0.50 0.49 0.48 0.41 0.38 0.31 0.23 0.22 0.17 0.12 0.09 0.09 0.09 0.11 0.13 0.21 0.29 0.29 0.29 0.28 0.27 0.27
2.58 2.66 2.63 2.52 2.56 2.60 2.36 2.07 1.92 1.66 1.46 1.41 1.24 1.16 1.10 1.11 1.06 0.97 0.80 0.63 0.58 0.49 0.48 0.51 0.44 0.34 0.29 0.23 0.23 0.21 0.16 0.13 0.11 0.10 0.12 0.13 0.20 0.29 0.30 0.32 0.30 0.28 0.28
2.78 2.93 3.07 2.95 2.87 2.89 2.70 2.41 2.16 1.92 1.64 1.51 1.43 1.34 1.27 1.18 1.07 0.99 0.86 0.70 0.61 0.51 0.48 0.54 0.48 0.37 0.35 0.27 0.24 0.25 0.22 0.18 0.15 0.14 0.16 0.16 0.18 0.27 0.33 0.36 0.32 0.30 0.31
2.68 2.92 3.21 3.12 2.98 2.91 2.77 2.55 2.24 2.10 1.88 1.67 1.62 1.56 1.40 1.30 1.18 1.06 0.97 0.82 0.70 0.58 0.49 0.50 0.54 0.47 0.44 0.40 0.33 0.29 0.29 0.24 0.19 0.18 0.18 0.20 0.19 0.24 0.31 0.36 0.34 0.34 0.37
2.70 2.82 3.08 3.13 2.94 2.89 2.81 2.57 2.26 2.04 1.93 1.85 1.67 1.54 1.49 1.36 1.27 1.19 1.01 0.87 0.76 0.65 0.53 0.46 0.49 0.53 0.50 0.46 0.41 0.36 0.35 0.31 0.25 0.23 0.21 0.23 0.23 0.24 0.28 0.31 0.34 0.41 0.49
2.74 2.89 2.94 3.08 3.07 2.85 2.79 2.60 2.32 2.23 2.03 1.88 1.75 1.54 1.47 1.41 1.32 1.27 1.09 0.89 0.81 0.79 0.71 0.61 0.58 0.58 0.55 0.47 0.41 0.40 0.38 0.33 0.29 0.27 0.25 0.25 0.23 0.23 0.27 0.31 0.31 0.38 0.51
2.78 2.95 2.95 2.94 3.01 2.95 2.79 2.67 2.34 2.20 2.19 1.97 1.85 1.71 1.54 1.48 1.46 1.41 1.26 1.02 0.99 1.02 0.95 0.80 0.70 0.63 0.57 0.51 0.45 0.44 0.41 0.38 0.32 0.30 0.29 0.28 0.25 0.24 0.25 0.30 0.32 0.33 0.43
2.71 2.91 3.03 2.98 2.94 3.07 2.98 2.83 2.65 2.37 2.17 2.15 2.08 1.86 1.62 1.52 1.50 1.43 1.32 1.23 1.22 1.16 1.07 0.95 0.83 0.74 0.62 0.57 0.52 0.49 0.49 0.47 0.38 0.35 0.34 0.33 0.30 0.27 0.27 0.29 0.34 0.34 0.37
2.70 2.89 3.03 3.00 2.96 3.15 3.28 3.08 2.82 2.60 2.25 2.04 2.04 1.90 1.74 1.62 1.54 1.49 1.36 1.34 1.37 1.31 1.20 1.13 0.99 0.88 0.77 0.70 0.66 0.56 0.53 0.54 0.47 0.37 0.33 0.32 0.31 0.30 0.28 0.28 0.29 0.31 0.34
2.61 2.78 2.94 2.97 2.94 2.95 3.06 2.98 2.71 2.44 2.27 2.03 1.94 1.95 1.87 1.78 1.78 1.68 1.48 1.45 1.47 1.35 1.24 1.25 1.27 1.17 1.02 0.90 0.82 0.67 0.58 0.53 0.48 0.37 0.31 0.29 0.28 0.29 0.28 0.30 0.29 0.29 0.29
2.27 2.60 2.81 2.95 3.05 2.88 2.71 2.77 2.73 2.58 2.38 2.21 2.10 2.08 1.94 1.83 1.77 1.77 1.73 1.64 1.64 1.58 1.49 1.38 1.38 1.38 1.28 1.17 1.05 0.95 0.73 0.58 0.46 0.39 0.34 0.31 0.29 0.29 0.29 0.29 0.29 0.29 0.28
1.93 2.23 2.51 2.73 2.93 3.02 2.90 2.94 2.85 2.71 2.44 2.17 1.97 1.94 1.94 1.89 1.83 1.75 1.79 1.80 1.78 1.73 1.63 1.54 1.46 1.43 1.42 1.35 1.25 1.24 0.97 0.68 0.50 0.44 0.39 0.35 0.33 0.33 0.33 0.34 0.33 0.32 0.31
1.66 1.89 2.12 2.46 2.72 2.87 2.97 2.86 2.69 2.49 2.22 1.94 1.91 2.00 2.01 1.94 1.86 1.80 1.77 1.78 1.81 1.77 1.68 1.70 1.68 1.51 1.49 1.48 1.41 1.25 1.05 0.84 0.75 0.60 0.48 0.44 0.41 0.37 0.38 0.38 0.37 0.35 0.35
1.45 1.69 1.84 2.07 2.39 2.52 2.48 2.49 2.51 2.37 2.17 2.05 1.98 1.95 1.93 1.84 1.78 1.72 1.70 1.72 1.70 1.71 1.68 1.71 1.76 1.72 1.61 1.54 1.49 1.42 1.34 1.14 0.97 0.89 0.71 0.57 0.54 0.49 0.47 0.47 0.47 0.46 0.43
1.20 1.42 1.61 1.67 1.89 2.11 2.11 2.15 2.24 2.13 2.02 1.93 1.82 1.78 1.80 1.75 1.65 1.60 1.57 1.57 1.60 1.60 1.59 1.63 1.72 1.79 1.76 1.62 1.49 1.39 1.34 1.25 1.10 1.06 0.94 0.74 0.66 0.57 0.54 0.51 0.50 0.53 0.56

GEFSSE_prec_meanprecacc_222.txt.gz
Total_Precipitation_Accumulation
0.11 0.20 0.48 0.56 0.54 0.52 0.50 0.50 0.51 0.48 0.47 0.52 0.53 0.52 0.52 0.51 0.44 0.37 0.37 0.41 0.46 0.57 0.64 0.65 0.64 0.65 0.60 0.57 0.55 0.37 0.27 0.21 0.17 0.16 0.17 0.23 0.26 0.25 0.20 0.20 0.22 0.23 0.27
0.11 0.20 0.44 0.59 0.66 0.64 0.60 0.53 0.50 0.45 0.46 0.52 0.58 0.62 0.63 0.58 0.46 0.42 0.42 0.44 0.52 0.64 0.67 0.70 0.56 0.51 0.46 0.43 0.35 0.22 0.16 0.10 0.07 0.06 0.06 0.09 0.15 0.20 0.18 0.18 0.21 0.26 0.28
0.13 0.24 0.44 0.61 0.73 0.71 0.68 0.61 0.52 0.45 0.46 0.49 0.58 0.68 0.70 0.64 0.59 0.53 0.51 0.50 0.57 0.64 0.61 0.59 0.50 0.41 0.34 0.27 0.20 0.14 0.10 0.06 0.05 0.05 0.06 0.08 0.12 0.18 0.20 0.18 0.23 0.28 0.25
0.17 0.29 0.45 0.67 0.82 0.81 0.71 0.67 0.59 0.52 0.51 0.54 0.55 0.62 0.66 0.68 0.68 0.60 0.58 0.57 0.57 0.54 0.50 0.45 0.38 0.32 0.27 0.20 0.14 0.11 0.08 0.05 0.04 0.05 0.06 0.10 0.12 0.23 0.28 0.25 0.27 0.29 0.27
0.26 0.39 0.57 0.79 0.93 0.95 0.85 0.78 0.71 0.62 0.59 0.60 0.61 0.62 0.64 0.67 0.69 0.69 0.67 0.64 0.58 0.45 0.41 0.39 0.31 0.27 0.24 0.18 0.14 0.12 0.10 0.07 0.05 0.05 0.08 0.12 0.18 0.33 0.33 0.31 0.32 0.35 0.34
0.42 0.59 0.72 0.87 0.99 1.02 0.97 0.89 0.87 0.79 0.70 0.74 0.73 0.67 0.70 0.70 0.71 0.75 0.70 0.61 0.55 0.47 0.40 0.34 0.31 0.29 0.24 0.20 0.16 0.14 0.12 0.08 0.05 0.06 0.10 0.13 0.21 0.40 0.38 0.35 0.38 0.43 0.43
0.63 0.78 0.88 1.00 1.10 1.07 1.06 1.03 1.01 1.00 0.93 0.89 0.86 0.80 0.78 0.76 0.75 0.75 0.71 0.55 0.50 0.48 0.44 0.38 0.35 0.32 0.29 0.22 0.17 0.15 0.13 0.07 0.05 0.07 0.11 0.16 0.25 0.39 0.38 0.34 0.38 0.44 0.43
0.87 1.01 1.12 1.25 1.31 1.21 1.15 1.10 1.10 1.18 1.19 1.12 1.06 0.99 0.88 0.86 0.83 0.75 0.68 0.55 0.49 0.49 0.47 0.44 0.40 0.36 0.34 0.26 0.19 0.16 0.12 0.05 0.04 0.07 0.11 0.17 0.24 0.36 0.36 0.31 0.32 0.34 0.36
1.29 1.36 1.48 1.49 1.41 1.38 1.28 1.21 1.18 1.21 1.27 1.29 1.21 1.14 0.99 0.94 0.89 0.78 0.67 0.64 0.56 0.54 0.49 0.44 0.44 0.41 0.37 0.31 0.22 0.17 0.11 0.05 0.04 0.08 0.11 0.16 0.26 0.42 0.40 0.34 0.31 0.32 0.32
1.78 1.81 1.87 1.84 1.67 1.55 1.43 1.31 1.26 1.23 1.29 1.35 1.28 1.07 0.91 0.87 0.88 0.79 0.63 0.66 0.64 0.57 0.51 0.45 0.44 0.44 0.37 0.31 0.23 0.17 0.11 0.06 0.05 0.09 0.12 0.15 0.25 0.40 0.43 0.38 0.35 0.36 0.33
2.23 2.19 2.10 2.08 1.99 1.83 1.69 1.45 1.39 1.34 1.36 1.31 1.21 1.06 0.94 0.91 0.86 0.77 0.56 0.51 0.59 0.57 0.52 0.46 0.43 0.43 0.34 0.26 0.21 0.15 0.11 0.09 0.09 0.10 0.12 0.15 0.27 0.35 0.38 0.35 0.34 0.35 0.35
2.36 2.39 2.32 2.27 2.26 2.12 1.91 1.77 1.65 1.47 1.39 1.31 1.15 1.05 1.03 0.96 0.89 0.77 0.63 0.52 0.56 0.56 0.57 0.53 0.45 0.41 0.34 0.25 0.24 0.19 0.13 0.10 0.10 0.10 0.12 0.14 0.25 0.34 0.33 0.32 0.32 0.32 0.30
2.64 2.72 2.69 2.59 2.62 2.63 2.37 2.08 1.94 1.69 1.49 1.43 1.26 1.17 1.11 1.11 1.07 0.98 0.83 0.69 0.64 0.56 0.54 0.56 0.48 0.37 0.30 0.24 0.24 0.22 0.17 0.14 0.12 0.11 0.12 0.15 0.23 0.34 0.35 0.36 0.34 0.32 0.31
2.83 2.98 3.12 3.01 2.92 2.92 2.72 2.43 2.18 1.95 1.67 1.53 1.45 1.35 1.28 1.19 1.08 1.01 0.90 0.76 0.67 0.56 0.52 0.57 0.50 0.39 0.36 0.28 0.25 0.27 0.24 0.20 0.17 0.15 0.17 0.17 0.20 0.32 0.40 0.43 0.37 0.33 0.33
2.71 2.96 3.26 3.19 3.03 2.94 2.79 2.57 2.26 2.13 1.92 1.70 1.65 1.58 1.42 1.32 1.20 1.07 1.00 0.88 0.78 0.64 0.52 0.53 0.58 0.50 0.47 0.43 0.35 0.32 0.32 0.27 0.21 0.19 0.19 0.21 0.21 0.28 0.38 0.44 0.41 0.38 0.40
2.72 2.85 3.12 3.19 2.99 2.92 2.83 2.59 2.28 2.07 1.97 1.88 1.69 1.56 1.52 1.39 1.30 1.24 1.05 0.91 0.82 0.73 0.59 0.51 0.53 0.58 0.55 0.51 0.46 0.39 0.39 0.35 0.27 0.24 0.23 0.25 0.26 0.29 0.36 0.39 0.41 0.47 0.53
2.76 2.91 2.97 3.12 3.11 2.88 2.83 2.62 2.34 2.25 2.08 1.93 1.78 1.56 1.50 1.44 1.36 1.33 1.17 0.96 0.87 0.86 0.77 0.66 0.63 0.65 0.61 0.51 0.45 0.43 0.41 0.36 0.31 0.29 0.27 0.28 0.27 0.29 0.35 0.38 0.37 0.43 0.56
2.79 2.97 2.97 2.97 3.05 2.97 2.81 2.68 2.37 2.22 2.22 2.03 1.91 1.75 1.57 1.51 1.50 1.47 1.34 1.11 1.07 1.10 1.02 0.87 0.77 0.69 0.63 0.56 0.48 0.47 0.43 0.40 0.35 0.34 0.32 0.30 0.29 0.30 0.35 0.38 0.37 0.39 0.49
2.72 2.94 3.05 3.01 2.98 3.09 3.00 2.84 2.67 2.39 2.19 2.19 2.14 1.90 1.66 1.56 1.54 1.48 1.40 1.33 1.30 1.25 1.16 1.01 0.89 0.82 0.69 0.64 0.59 0.55 0.55 0.52 0.45 0.41 0.38 0.36 0.33 0.33 0.35 0.36 0.37 0.38 0.42
2.72 2.92 3.06 3.02 2.99 3.18 3.30 3.10 2.84 2.62 2.27 2.07 2.07 1.94 1.79 1.67 1.59 1.54 1.42 1.42 1.47 1.41 1.30 1.22 1.06 0.95 0.86 0.80 0.76 0.65 0.64 0.66 0.57 0.44 0.39 0.37 0.36 0.35 0.35 0.34 0.34 0.36 0.40
2.63 2.82 2.97 2.99 2.95 2.96 3.09 3.01 2.73 2.45 2.28 2.04 1.96 1.97 1.90 1.83 1.84 1.74 1.53 1.50 1.54 1.43 1.33 1.35 1.37 1.26 1.12 1.02 0.94 0.77 0.68 0.66 0.62 0.48 0.38 0.36 0.34 0.33 0.33 0.35 0.35 0.34 0.34
2.29 2.65 2.84 2.96 3.06 2.89 2.72 2.79 2.75 2.60 2.41 2.23 2.13 2.12 1.97 1.86 1.81 1.82 1.79 1.70 1.71 1.66 1.55 1.45 1.46 1.49 1.39 1.29 1.18 1.07 0.85 0.71 0.60 0.52 0.43 0.39 0.36 0.35 0.32 0.33 0.34 0.34 0.33
1.95 2.28 2.56 2.75 2.95 3.03 2.92 2.95 2.86 2.73 2.46 2.19 2.00 1.98 1.99 1.93 1.87 1.80 1.83 1.86 1.84 1.81 1.70 1.60 1.52 1.49 1.50 1.44 1.36 1.37 1.08 0.78 0.61 0.54 0.48 0.42 0.39 0.39 0.38 0.38 0.37 0.36 0.35
1.68 1.92 2.18 2.49 2.73 2.90 3.00 2.87 2.71 2.50 2.23 1.96 1.94 2.04 2.07 2.00 1.90 1.85 1.83 1.83 1.86 1.82 1.74 1.76 1.74 1.56 1.54 1.55 1.50 1.37 1.16 0.91 0.81 0.67 0.56 0.51 0.46 0.42 0.42 0.42 0.40 0.39 0.39
1.46 1.70 1.86 2.11 2.43 2.56 2.53 2.52 2.53 2.38 2.19 2.08 2.03 2.01 2.00 1.91 1.83 1.77 1.75 1.78 1.76 1.77 1.74 1.77 1.80 1.77 1.66 1.60 1.55 1.49 1.43 1.22 1.02 0.94 0.77 0.64 0.60 0.53 0.51 0.50 0.49 0.48 0.46
1.20 1.43 1.63 1.70 1.92 2.14 2.16 2.21 2.28 2.17 2.05 1.96 1.87 1.84 1.87 1.81 1.70 1.65 1.62 1.62 1.66 1.67 1.66 1.70 1.79 1.84 1.82 1.68 1.55 1.44 1.40 1.32 1.16 1.11 0.98 0.78 0.71 0.61 0.57 0.55 0.54 0.55 0.59

GEFSSE_prec_meanprecacc_228.txt.gz
Total_Precipitation_Accumulation
0.12 0.20 0.49 0.58 0.56 0.56 0.52 0.51 0.52 0.49 0.48 0.54 0.55 0.54 0.54 0.52 0.47 0.38 0.38 0.43 0.48 0.60 0.68 0.68 0.67 0.68 0.63 0.59 0.56 0.39 0.30 0.24 0.20 0.18 0.18 0.24 0.27 0.26 0.21 0.22 0.26 0.26 0.29
0.11 0.20 0.46 0.61 0.70 0.68 0.63 0.54 0.51 0.46 0.47 0.54 0.60 0.63 0.65 0.59 0.48 0.44 0.44 0.45 0.54 0.67 0.71 0.75 0.61 0.54 0.49 0.45 0.36 0.23 0.18 0.11 0.09 0.07 0.06 0.10 0.17 0.21 0.19 0.19 0.24 0.30 0.31
0.13 0.25 0.46 0.63 0.76 0.76 0.73 0.64 0.54 0.46 0.47 0.50 0.60 0.71 0.73 0.66 0.60 0.55 0.54 0.52 0.60 0.66 0.64 0.62 0.55 0.45 0.36 0.29 0.21 0.15 0.11 0.07 0.06 0.05 0.06 0.09 0.13 0.20 0.22 0.20 0.26 0.32 0.29
0.18 0.31 0.47 0.70 0.86 0.86 0.76 0.71 0.62 0.54 0.52 0.55 0.57 0.65 0.70 0.72 0.73 0.64 0.62 0.62 0.61 0.58 0.53 0.48 0.41 0.36 0.32 0.22 0.17 0.13 0.09 0.06 0.05 0.05 0.06 0.10 0.13 0.26 0.30 0.28 0.30 0.32 0.30
0.28 0.41 0.60 0.82 0.97 1.00 0.89 0.83 0.75 0.64 0.60 0.61 0.62 0.64 0.68 0.75 0.77 0.77 0.75 0.71 0.63 0.50 0.45 0.43 0.34 0.30 0.29 0.23 0.18 0.15 0.12 0.08 0.05 0.05 0.08 0.13 0.18 0.35 0.37 0.34 0.35 0.38 0.36
0.44 0.61 0.75 0.90 1.03 1.06 1.01 0.93 0.91 0.82 0.71 0.75 0.74 0.69 0.72 0.74 0.80 0.84 0.78 0.68 0.61 0.52 0.44 0.37 0.34 0.31 0.28 0.23 0.20 0.17 0.14 0.09 0.05 0.07 0.10 0.14 0.22 0.42 0.40 0.36 0.39 0.45 0.46
0.66 0.81 0.91 1.03 1.13 1.11 1.10 1.07 1.05 1.03 0.96 0.91 0.87 0.81 0.80 0.79 0.79 0.81 0.77 0.61 0.55 0.53 0.48 0.42 0.39 0.36 0.33 0.24 0.20 0.18 0.15 0.09 0.05 0.08 0.11 0.17 0.26 0.42 0.40 0.35 0.39 0.46 0.47
0.92 1.05 1.14 1.28 1.35 1.26 1.19 1.14 1.14 1.22 1.22 1.15 1.09 1.00 0.90 0.88 0.85 0.78 0.72 0.60 0.55 0.54 0.51 0.47 0.43 0.38 0.36 0.28 0.21 0.19 0.13 0.05 0.04 0.07 0.11 0.17 0.25 0.38 0.38 0.32 0.33 0.36 0.40
1.33 1.42 1.52 1.52 1.45 1.41 1.33 1.26 1.22 1.24 1.29 1.32 1.24 1.17 1.02 0.96 0.91 0.80 0.69 0.68 0.63 0.60 0.54 0.48 0.47 0.43 0.39 0.32 0.24 0.18 0.12 0.05 0.04 0.08 0.11 0.17 0.26 0.43 0.42 0.35 0.33 0.34 0.36
1.81 1.86 1.92 1.89 1.72 1.59 1.48 1.37 1.30 1.26 1.32 1.38 1.30 1.09 0.92 0.89 0.89 0.81 0.65 0.69 0.69 0.63 0.57 0.50 0.48 0.46 0.38 0.32 0.24 0.18 0.12 0.07 0.05 0.09 0.12 0.16 0.27 0.43 0.45 0.40 0.38 0.38 0.38
2.25 2.22 2.14 2.14 2.05 1.90 1.76 1.51 1.44 1.38 1.39 1.35 1.23 1.07 0.95 0.92 0.86 0.77 0.57 0.53 0.62 0.62 0.58 0.52 0.48 0.48 0.36 0.28 0.23 0.15 0.11 0.09 0.09 0.10 0.13 0.16 0.30 0.38 0.42 0.39 0.37 0.39 0.41
2.37 2.41 2.34 2.30 2.29 2.18 1.99 1.83 1.69 1.51 1.41 1.34 1.17 1.06 1.04 0.97 0.90 0.77 0.64 0.53 0.58 0.60 0.64 0.60 0.52 0.47 0.37 0.26 0.25 0.20 0.14 0.10 0.10 0.10 0.12 0.15 0.29 0.37 0.37 0.36 0.36 0.36 0.36
2.65 2.74 2.70 2.61 2.63 2.66 2.42 2.12 1.97 1.72 1.51 1.45 1.28 1.19 1.12 1.12 1.07 0.99 0.83 0.69 0.67 0.61 0.60 0.62 0.54 0.41 0.33 0.26 0.25 0.23 0.17 0.15 0.13 0.11 0.13 0.16 0.26 0.38 0.38 0.40 0.39 0.38 0.39
2.84 2.99 3.15 3.03 2.94 2.95 2.76 2.47 2.21 1.97 1.69 1.55 1.48 1.38 1.30 1.21 1.09 1.01 0.90 0.76 0.68 0.59 0.56 0.62 0.55 0.43 0.38 0.30 0.27 0.27 0.24 0.20 0.17 0.16 0.17 0.18 0.23 0.35 0.43 0.47 0.42 0.40 0.41
2.72 2.97 3.28 3.21 3.06 2.97 2.82 2.61 2.30 2.16 1.94 1.72 1.66 1.60 1.45 1.34 1.21 1.08 1.00 0.89 0.80 0.66 0.55 0.56 0.62 0.55 0.51 0.45 0.38 0.34 0.34 0.28 0.22 0.20 0.19 0.22 0.23 0.32 0.42 0.49 0.47 0.45 0.46
2.73 2.86 3.14 3.22 3.02 2.96 2.86 2.62 2.31 2.11 2.00 1.90 1.70 1.57 1.54 1.42 1.32 1.25 1.06 0.92 0.84 0.75 0.62 0.54 0.57 0.63 0.60 0.56 0.51 0.44 0.42 0.37 0.29 0.25 0.23 0.26 0.27 0.31 0.40 0.44 0.48 0.53 0.60
2.77 2.93 2.99 3.14 3.15 2.92 2.86 2.65 2.37 2.28 2.10 1.95 1.80 1.58 1.52 1.48 1.39 1.35 1.19 0.97 0.88 0.89 0.81 0.70 0.68 0.71 0.67 0.56 0.49 0.49 0.46 0.39 0.33 0.30 0.28 0.28 0.28 0.30 0.39 0.45 0.44 0.48 0.62
2.81 3.00 3.00 2.99 3.08 3.00 2.85 2.73 2.40 2.25 2.23 2.05 1.94 1.77 1.60 1.55 1.54 1.50 1.36 1.13 1.09 1.14 1.06 0.91 0.81 0.74 0.68 0.61 0.52 0.51 0.47 0.43 0.37 0.36 0.33 0.31 0.30 0.31 0.39 0.47 0.44 0.44 0.54
2.74 2.98 3.11 3.05 3.02 3.12 3.03 2.88 2.71 2.43 2.21 2.21 2.18 1.95 1.70 1.60 1.59 1.53 1.43 1.35 1.33 1.30 1.20 1.05 0.93 0.86 0.73 0.69 0.64 0.61 0.59 0.56 0.48 0.43 0.39 0.38 0.34 0.35 0.44 0.49 0.45 0.41 0.45
2.73 2.94 3.12 3.09 3.03 3.20 3.33 3.14 2.89 2.66 2.30 2.10 2.11 2.00 1.86 1.72 1.64 1.59 1.46 1.45 1.50 1.45 1.36 1.26 1.10 1.00 0.90 0.83 0.80 0.71 0.70 0.71 0.62 0.48 0.42 0.41 0.40 0.41 0.48 0.49 0.43 0.40 0.43
2.64 2.83 2.99 3.03 2.99 3.00 3.12 3.04 2.77 2.48 2.31 2.07 1.98 2.00 1.96 1.90 1.90 1.79 1.58 1.54 1.58 1.47 1.38 1.41 1.42 1.32 1.17 1.07 1.00 0.84 0.75 0.73 0.68 0.53 0.43 0.41 0.42 0.44 0.46 0.46 0.43 0.39 0.37
2.29 2.66 2.85 2.98 3.09 2.92 2.74 2.81 2.77 2.62 2.43 2.26 2.15 2.14 2.00 1.91 1.87 1.88 1.85 1.75 1.75 1.71 1.61 1.52 1.54 1.55 1.45 1.35 1.26 1.16 0.94 0.80 0.67 0.57 0.48 0.44 0.45 0.48 0.46 0.45 0.43 0.40 0.36
1.96 2.31 2.58 2.76 2.97 3.05 2.94 2.98 2.90 2.76 2.48 2.22 2.02 2.00 2.01 1.96 1.91 1.85 1.90 1.92 1.90 1.86 1.75 1.66 1.60 1.57 1.57 1.50 1.43 1.45 1.16 0.87 0.68 0.61 0.53 0.48 0.46 0.47 0.49 0.51 0.47 0.43 0.40
1.69 1.95 2.20 2.51 2.75 2.92 3.03 2.91 2.73 2.52 2.24 1.97 1.95 2.06 2.08 2.02 1.93 1.90 1.88 1.89 1.92 1.87 1.78 1.80 1.79 1.63 1.63 1.63 1.57 1.43 1.22 0.96 0.86 0.72 0.61 0.57 0.52 0.48 0.48 0.49 0.48 0.45 0.44
1.47 1.72 1.89 2.14 2.44 2.58 2.55 2.55 2.56 2.41 2.21 2.09 2.04 2.03 2.01 1.93 1.86 1.81 1.81 1.83 1.82 1.83 1.79 1.81 1.84 1.82 1.72 1.67 1.62 1.55 1.47 1.25 1.06 0.98 0.81 0.68 0.65 0.58 0.56 0.55 0.54 0.52 0.49
1.20 1.43 1.64 1.73 1.95 2.16 2.18 2.23 2.31 2.19 2.07 1.99 1.90 1.87 1.90 1.83 1.73 1.69 1.66 1.67 1.72 1.72 1.71 1.75 1.84 1.89 1.85 1.72 1.60 1.49 1.45 1.37 1.20 1.15 1.02 0.81 0.75 0.65 0.62 0.60 0.58 0.59 0.62

GEFSSE_prec_meanprecacc_234.txt.gz
Total_Precipitation_Accumulation
0.12 0.21 0.50 0.59 0.58 0.58 0.55 0.54 0.55 0.51 0.51 0.56 0.57 0.56 0.57 0.55 0.50 0.41 0.41 0.46 0.51 0.64 0.71 0.71 0.69 0.71 0.66 0.62 0.58 0.42 0.33 0.26 0.22 0.20 0.19 0.25 0.28 0.27 0.22 0.24 0.29 0.29 0.33
0.11 0.20 0.47 0.62 0.71 0.70 0.66 0.57 0.53 0.48 0.50 0.56 0.63 0.66 0.68 0.62 0.50 0.46 0.46 0.47 0.57 0.70 0.74 0.79 0.65 0.57 0.51 0.47 0.38 0.26 0.20 0.12 0.09 0.08 0.07 0.11 0.19 0.23 0.21 0.21 0.27 0.33 0.35
0.13 0.26 0.46 0.64 0.79 0.79 0.76 0.66 0.55 0.48 0.49 0.52 0.62 0.74 0.77 0.71 0.64 0.58 0.56 0.55 0.63 0.70 0.69 0.66 0.59 0.49 0.38 0.31 0.24 0.17 0.13 0.07 0.06 0.05 0.06 0.10 0.15 0.23 0.25 0.21 0.29 0.36 0.32
0.19 0.32 0.49 0.73 0.90 0.90 0.80 0.74 0.66 0.56 0.53 0.56 0.58 0.67 0.76 0.78 0.77 0.68 0.66 0.66 0.65 0.62 0.59 0.55 0.45 0.40 0.34 0.24 0.18 0.15 0.10 0.06 0.05 0.05 0.07 0.11 0.15 0.29 0.34 0.31 0.33 0.37 0.32
0.29 0.43 0.63 0.87 1.03 1.05 0.95 0.87 0.79 0.67 0.61 0.63 0.63 0.65 0.72 0.79 0.81 0.81 0.81 0.76 0.67 0.54 0.49 0.49 0.39 0.34 0.32 0.26 0.20 0.16 0.13 0.09 0.06 0.06 0.09 0.14 0.21 0.40 0.42 0.37 0.37 0.40 0.38
0.46 0.64 0.78 0.96 1.10 1.11 1.05 0.97 0.95 0.86 0.74 0.77 0.75 0.70 0.74 0.77 0.83 0.89 0.86 0.75 0.67 0.57 0.49 0.42 0.39 0.36 0.32 0.26 0.22 0.19 0.16 0.10 0.06 0.07 0.10 0.14 0.24 0.46 0.43 0.37 0.40 0.46 0.47
0.67 0.82 0.94 1.08 1.19 1.15 1.13 1.10 1.09 1.08 1.00 0.94 0.89 0.82 0.82 0.82 0.83 0.85 0.83 0.67 0.61 0.60 0.56 0.49 0.44 0.41 0.38 0.28 0.23 0.20 0.16 0.09 0.06 0.08 0.12 0.18 0.28 0.44 0.41 0.36 0.40 0.46 0.48
0.94 1.06 1.16 1.31 1.40 1.31 1.22 1.17 1.18 1.26 1.26 1.19 1.12 1.03 0.92 0.91 0.88 0.82 0.76 0.63 0.59 0.59 0.58 0.55 0.50 0.43 0.39 0.30 0.23 0.20 0.14 0.06 0.05 0.07 0.12 0.19 0.28 0.40 0.39 0.33 0.34 0.38 0.42
1.35 1.45 1.56 1.56 1.48 1.46 1.39 1.31 1.25 1.28 1.33 1.35 1.27 1.20 1.04 0.99 0.94 0.83 0.73 0.71 0.65 0.63 0.58 0.53 0.53 0.47 0.41 0.33 0.25 0.19 0.12 0.05 0.04 0.08 0.12 0.18 0.28 0.45 0.43 0.37 0.34 0.36 0.38
1.83 1.88 1.95 1.93 1.75 1.63 1.53 1.43 1.35 1.31 1.36 1.42 1.33 1.11 0.94 0.91 0.92 0.84 0.68 0.72 0.73 0.67 0.60 0.55 0.53 0.51 0.42 0.34 0.25 0.18 0.12 0.07 0.05 0.09 0.12 0.16 0.28 0.45 0.47 0.42 0.40 0.40 0.40
2.26 2.23 2.16 2.16 2.09 1.95 1.81 1.59 1.53 1.45 1.45 1.40 1.27 1.09 0.97 0.94 0.88 0.79 0.59 0.56 0.65 0.65 0.61 0.56 0.53 0.54 0.42 0.31 0.25 0.16 0.11 0.09 0.09 0.11 0.13 0.17 0.31 0.40 0.45 0.42 0.41 0.42 0.44
2.39 2.42 2.36 2.32 2.31 2.20 2.02 1.90 1.77 1.59 1.50 1.42 1.23 1.10 1.07 0.99 0.91 0.78 0.65 0.55 0.61 0.62 0.66 0.63 0.56 0.53 0.44 0.31 0.28 0.22 0.14 0.10 0.10 0.10 0.12 0.16 0.31 0.40 0.39 0.39 0.40 0.39 0.41
2.67 2.76 2.72 2.63 2.65 2.68 2.44 2.14 2.00 1.76 1.57 1.52 1.35 1.23 1.15 1.15 1.10 1.01 0.85 0.71 0.69 0.63 0.62 0.64 0.58 0.46 0.38 0.31 0.29 0.25 0.18 0.15 0.13 0.12 0.14 0.17 0.28 0.41 0.41 0.44 0.44 0.42 0.44
2.86 3.02 3.18 3.06 2.97 2.98 2.78 2.49 2.23 1.99 1.72 1.60 1.54 1.42 1.32 1.23 1.11 1.04 0.93 0.78 0.71 0.61 0.58 0.64 0.58 0.46 0.41 0.33 0.30 0.29 0.26 0.21 0.17 0.17 0.18 0.19 0.24 0.40 0.49 0.52 0.48 0.45 0.47
2.73 3.00 3.31 3.24 3.10 3.01 2.85 2.63 2.32 2.18 1.97 1.76 1.73 1.67 1.49 1.36 1.23 1.10 1.03 0.92 0.82 0.69 0.57 0.58 0.65 0.59 0.55 0.48 0.40 0.35 0.34 0.29 0.23 0.20 0.20 0.22 0.24 0.36 0.48 0.54 0.51 0.49 0.53
2.75 2.89 3.16 3.25 3.06 3.00 2.89 2.65 2.34 2.13 2.02 1.93 1.74 1.63 1.60 1.45 1.34 1.26 1.08 0.94 0.87 0.78 0.64 0.56 0.60 0.66 0.64 0.61 0.54 0.46 0.43 0.38 0.30 0.26 0.24 0.26 0.28 0.33 0.42 0.46 0.51 0.58 0.67
2.78 2.95 3.02 3.17 3.19 2.97 2.90 2.68 2.40 2.30 2.12 1.97 1.83 1.61 1.56 1.51 1.41 1.37 1.20 0.98 0.90 0.91 0.83 0.73 0.71 0.74 0.70 0.60 0.53 0.52 0.49 0.41 0.34 0.31 0.29 0.29 0.29 0.31 0.40 0.47 0.49 0.55 0.71
2.82 3.02 3.03 3.03 3.11 3.05 2.89 2.76 2.44 2.28 2.26 2.07 1.96 1.79 1.62 1.57 1.55 1.52 1.38 1.14 1.10 1.16 1.08 0.94 0.84 0.77 0.72 0.66 0.57 0.55 0.51 0.46 0.39 0.37 0.34 0.32 0.30 0.32 0.39 0.49 0.49 0.51 0.62
2.74 3.00 3.14 3.08 3.04 3.15 3.08 2.94 2.77 2.49 2.25 2.24 2.20 1.96 1.71 1.61 1.60 1.54 1.45 1.37 1.35 1.33 1.24 1.09 0.97 0.89 0.77 0.74 0.70 0.67 0.65 0.60 0.51 0.45 0.40 0.38 0.35 0.36 0.45 0.53 0.51 0.49 0.52
2.74 2.97 3.17 3.13 3.06 3.23 3.36 3.19 2.94 2.73 2.36 2.13 2.13 2.01 1.86 1.73 1.65 1.60 1.48 1.48 1.53 1.48 1.39 1.30 1.13 1.02 0.94 0.89 0.86 0.78 0.77 0.77 0.66 0.51 0.44 0.43 0.41 0.42 0.50 0.55 0.51 0.47 0.50
2.65 2.85 3.02 3.08 3.03 3.03 3.15 3.08 2.82 2.54 2.36 2.11 2.00 2.01 1.97 1.90 1.90 1.80 1.60 1.57 1.60 1.51 1.41 1.45 1.46 1.35 1.21 1.11 1.05 0.90 0.83 0.80 0.73 0.55 0.44 0.43 0.45 0.48 0.53 0.53 0.49 0.46 0.45
2.30 2.67 2.87 3.02 3.15 2.97 2.78 2.84 2.81 2.67 2.47 2.29 2.18 2.16 2.01 1.92 1.88 1.89 1.86 1.77 1.77 1.74 1.65 1.56 1.57 1.59 1.48 1.39 1.29 1.20 1.01 0.88 0.73 0.60 0.50 0.46 0.48 0.53 0.55 0.53 0.49 0.46 0.42
1.96 2.31 2.59 2.78 3.00 3.08 2.98 3.01 2.93 2.79 2.52 2.26 2.06 2.03 2.03 1.98 1.93 1.86 1.91 1.94 1.92 1.89 1.78 1.70 1.64 1.60 1.61 1.54 1.47 1.50 1.21 0.92 0.73 0.65 0.56 0.51 0.50 0.52 0.56 0.57 0.54 0.51 0.47
1.69 1.96 2.21 2.52 2.77 2.95 3.07 2.94 2.77 2.54 2.27 2.01 1.99 2.10 2.12 2.05 1.96 1.93 1.91 1.92 1.95 1.91 1.83 1.83 1.83 1.67 1.67 1.67 1.62 1.49 1.27 1.00 0.90 0.77 0.66 0.61 0.56 0.53 0.54 0.54 0.53 0.52 0.52
1.48 1.73 1.89 2.15 2.46 2.60 2.58 2.59 2.60 2.44 2.24 2.12 2.08 2.07 2.06 1.96 1.89 1.84 1.84 1.87 1.86 1.88 1.85 1.86 1.88 1.85 1.76 1.71 1.66 1.60 1.52 1.31 1.10 1.02 0.86 0.73 0.70 0.63 0.59 0.58 0.58 0.57 0.54
1.22 1.45 1.66 1.74 1.97 2.19 2.20 2.26 2.34 2.22 2.10 2.03 1.93 1.91 1.94 1.87 1.75 1.71 1.69 1.69 1.76 1.79 1.79 1.82 1.89 1.94 1.90 1.77 1.65 1.55 1.50 1.41 1.24 1.18 1.05 0.85 0.80 0.70 0.66 0.63 0.62 0.63 0.66

GEFSSE_prec_meanprecacc_240.txt.gz
Total_Precipitation_Accumulation
0.12 0.21 0.50 0.59 0.59 0.59 0.56 0.55 0.56 0.53 0.52 0.58 0.59 0.59 0.60 0.58 0.52 0.44 0.44 0.48 0.53 0.68 0.76 0.76 0.72 0.74 0.69 0.65 0.62 0.45 0.35 0.27 0.23 0.20 0.20 0.27 0.30 0.29 0.24 0.26 0.33 0.32 0.36
0.11 0.20 0.47 0.63 0.72 0.72 0.69 0.59 0.55 0.50 0.52 0.58 0.64 0.68 0.70 0.63 0.52 0.48 0.48 0.49 0.58 0.72 0.77 0.83 0.70 0.61 0.54 0.50 0.42 0.30 0.21 0.13 0.09 0.08 0.07 0.11 0.20 0.25 0.23 0.24 0.31 0.36 0.38
0.13 0.26 0.47 0.66 0.80 0.81 0.78 0.68 0.57 0.49 0.51 0.55 0.65 0.75 0.79 0.73 0.66 0.60 0.59 0.58 0.65 0.73 0.73 0.71 0.64 0.53 0.41 0.34 0.27 0.19 0.14 0.08 0.06 0.06 0.07 0.12 0.16 0.25 0.26 0.24 0.31 0.40 0.35
0.19 0.33 0.50 0.75 0.93 0.94 0.84 0.77 0.67 0.57 0.54 0.59 0.60 0.69 0.78 0.80 0.80 0.72 0.70 0.69 0.68 0.66 0.65 0.62 0.50 0.44 0.36 0.26 0.21 0.16 0.11 0.07 0.06 0.06 0.09 0.15 0.18 0.32 0.37 0.33 0.35 0.39 0.34
0.30 0.44 0.65 0.91 1.08 1.09 0.99 0.91 0.83 0.70 0.63 0.65 0.65 0.67 0.74 0.81 0.83 0.84 0.84 0.80 0.71 0.57 0.54 0.55 0.45 0.40 0.36 0.28 0.22 0.18 0.14 0.09 0.06 0.07 0.12 0.18 0.24 0.46 0.46 0.39 0.39 0.43 0.40
0.48 0.65 0.81 0.99 1.15 1.15 1.08 1.01 0.99 0.88 0.76 0.79 0.78 0.72 0.75 0.79 0.85 0.92 0.89 0.78 0.70 0.59 0.53 0.47 0.44 0.41 0.37 0.30 0.25 0.21 0.16 0.10 0.07 0.08 0.13 0.18 0.28 0.49 0.46 0.39 0.41 0.47 0.48
0.69 0.84 0.96 1.10 1.22 1.20 1.17 1.13 1.11 1.11 1.03 0.96 0.91 0.84 0.84 0.83 0.85 0.88 0.86 0.69 0.64 0.63 0.59 0.54 0.49 0.44 0.43 0.32 0.27 0.24 0.18 0.10 0.07 0.10 0.14 0.20 0.31 0.47 0.44 0.38 0.41 0.48 0.50
0.96 1.09 1.18 1.33 1.42 1.34 1.25 1.20 1.20 1.28 1.28 1.20 1.13 1.04 0.94 0.93 0.91 0.84 0.79 0.65 0.61 0.63 0.63 0.60 0.55 0.47 0.43 0.33 0.27 0.23 0.16 0.07 0.06 0.09 0.14 0.21 0.30 0.42 0.42 0.36 0.36 0.39 0.43
1.37 1.47 1.58 1.57 1.49 1.47 1.40 1.33 1.28 1.31 1.36 1.37 1.29 1.21 1.06 1.02 0.95 0.85 0.75 0.73 0.67 0.65 0.61 0.57 0.57 0.51 0.44 0.36 0.28 0.22 0.13 0.06 0.05 0.10 0.14 0.20 0.30 0.47 0.45 0.38 0.36 0.37 0.40
1.84 1.90 1.97 1.95 1.77 1.65 1.55 1.44 1.37 1.34 1.40 1.46 1.37 1.14 0.97 0.94 0.95 0.86 0.70 0.74 0.75 0.69 0.62 0.57 0.55 0.54 0.45 0.37 0.28 0.21 0.13 0.07 0.06 0.10 0.14 0.18 0.30 0.47 0.49 0.43 0.41 0.42 0.42
2.28 2.26 2.18 2.19 2.12 1.97 1.84 1.60 1.54 1.46 1.47 1.42 1.31 1.13 1.01 0.98 0.91 0.81 0.60 0.57 0.66 0.67 0.62 0.58 0.56 0.56 0.45 0.34 0.30 0.20 0.14 0.10 0.10 0.12 0.15 0.18 0.33 0.42 0.46 0.43 0.42 0.44 0.47
2.41 2.46 2.40 2.36 2.35 2.23 2.05 1.92 1.80 1.62 1.53 1.44 1.26 1.13 1.11 1.04 0.96 0.80 0.66 0.56 0.62 0.63 0.68 0.65 0.58 0.55 0.47 0.34 0.32 0.25 0.17 0.12 0.12 0.12 0.13 0.17 0.33 0.42 0.40 0.40 0.42 0.41 0.44
2.68 2.79 2.77 2.68 2.71 2.72 2.47 2.17 2.02 1.79 1.60 1.55 1.38 1.27 1.19 1.20 1.16 1.08 0.90 0.73 0.71 0.64 0.64 0.65 0.59 0.47 0.41 0.35 0.33 0.27 0.20 0.17 0.16 0.14 0.15 0.18 0.30 0.43 0.42 0.46 0.47 0.44 0.47
2.87 3.04 3.21 3.11 3.02 3.02 2.81 2.51 2.25 2.02 1.76 1.63 1.57 1.46 1.37 1.28 1.17 1.12 1.00 0.83 0.74 0.64 0.61 0.66 0.60 0.47 0.43 0.37 0.35 0.33 0.28 0.23 0.19 0.18 0.20 0.20 0.25 0.41 0.51 0.56 0.52 0.48 0.51
2.75 3.02 3.35 3.28 3.13 3.04 2.88 2.65 2.34 2.20 1.99 1.79 1.76 1.71 1.55 1.42 1.28 1.17 1.12 0.99 0.88 0.73 0.60 0.61 0.67 0.60 0.57 0.52 0.44 0.38 0.37 0.31 0.25 0.22 0.20 0.22 0.24 0.36 0.50 0.57 0.55 0.53 0.56
2.76 2.91 3.20 3.28 3.10 3.04 2.92 2.67 2.36 2.15 2.04 1.95 1.77 1.66 1.63 1.51 1.40 1.32 1.16 1.01 0.94 0.84 0.69 0.60 0.63 0.69 0.67 0.64 0.58 0.49 0.46 0.40 0.31 0.27 0.25 0.27 0.28 0.33 0.44 0.49 0.54 0.62 0.71
2.80 2.97 3.05 3.21 3.24 3.01 2.94 2.70 2.42 2.33 2.14 1.99 1.84 1.64 1.60 1.55 1.47 1.44 1.27 1.05 0.97 0.96 0.88 0.77 0.75 0.78 0.74 0.63 0.56 0.55 0.52 0.44 0.37 0.33 0.30 0.29 0.29 0.31 0.40 0.48 0.50 0.58 0.76
2.85 3.04 3.06 3.06 3.16 3.10 2.95 2.81 2.47 2.31 2.28 2.09 1.98 1.82 1.66 1.61 1.60 1.58 1.44 1.20 1.16 1.22 1.13 0.97 0.88 0.81 0.76 0.69 0.60 0.58 0.54 0.49 0.42 0.40 0.36 0.32 0.30 0.32 0.40 0.50 0.50 0.55 0.65
2.76 3.02 3.17 3.11 3.09 3.21 3.14 3.01 2.82 2.52 2.27 2.27 2.23 1.99 1.74 1.64 1.63 1.58 1.50 1.40 1.39 1.37 1.28 1.12 1.00 0.93 0.80 0.77 0.73 0.70 0.69 0.64 0.56 0.49 0.43 0.40 0.36 0.36 0.46 0.55 0.55 0.56 0.56
2.76 2.99 3.19 3.16 3.10 3.29 3.43 3.28 3.04 2.79 2.40 2.16 2.16 2.05 1.89 1.75 1.66 1.62 1.51 1.52 1.57 1.52 1.43 1.34 1.17 1.06 0.98 0.93 0.90 0.81 0.81 0.82 0.71 0.56 0.49 0.46 0.44 0.45 0.53 0.58 0.55 0.52 0.53
2.66 2.86 3.05 3.11 3.05 3.08 3.22 3.15 2.92 2.63 2.42 2.15 2.04 2.05 2.00 1.93 1.92 1.81 1.61 1.59 1.64 1.53 1.44 1.48 1.50 1.39 1.26 1.16 1.10 0.95 0.88 0.85 0.78 0.60 0.48 0.47 0.48 0.52 0.56 0.56 0.53 0.49 0.47
2.31 2.68 2.89 3.05 3.17 2.99 2.83 2.89 2.88 2.77 2.56 2.35 2.21 2.20 2.06 1.95 1.91 1.91 1.87 1.78 1.79 1.76 1.67 1.58 1.60 1.63 1.53 1.42 1.32 1.24 1.06 0.95 0.79 0.65 0.55 0.50 0.52 0.57 0.58 0.56 0.53 0.49 0.44
1.97 2.32 2.61 2.81 3.02 3.10 3.01 3.06 2.99 2.86 2.63 2.35 2.12 2.07 2.07 2.01 1.96 1.88 1.92 1.95 1.93 1.90 1.80 1.71 1.66 1.64 1.65 1.58 1.50 1.53 1.24 0.95 0.78 0.71 0.61 0.55 0.54 0.56 0.59 0.60 0.57 0.53 0.49
1.71 1.97 2.23 2.55 2.80 2.98 3.09 2.98 2.82 2.60 2.33 2.10 2.07 2.14 2.16 2.08 1.99 1.95 1.92 1.93 1.96 1.92 1.84 1.84 1.85 1.70 1.70 1.70 1.66 1.52 1.30 1.02 0.92 0.80 0.70 0.65 0.60 0.57 0.58 0.58 0.55 0.53 0.54
1.50 1.75 1.92 2.18 2.49 2.63 2.61 2.62 2.64 2.49 2.29 2.18 2.16 2.17 2.11 1.99 1.91 1.86 1.85 1.88 1.87 1.89 1.86 1.88 1.91 1.88 1.78 1.72 1.68 1.62 1.55 1.33 1.12 1.04 0.89 0.77 0.74 0.66 0.62 0.61 0.60 0.59 0.56
1.24 1.48 1.69 1.78 2.01 2.22 2.23 2.29 2.37 2.24 2.14 2.08 1.98 2.01 2.08 1.94 1.79 1.73 1.70 1.71 1.77 1.80 1.81 1.85 1.92 1.97 1.92 1.78 1.67 1.57 1.53 1.43 1.26 1.20 1.07 0.89 0.84 0.74 0.68 0.65 0.63 0.64 0.67

GEFSSE_prec_meanprecacc_246.txt.gz
Total_Precipitation_Accumulation
0.13 0.22 0.52 0.60 0.60 0.61 0.58 0.57 0.58 0.54 0.54 0.59 0.61 0.61 0.62 0.59 0.53 0.45 0.44 0.49 0.54 0.70 0.78 0.78 0.75 0.76 0.71 0.67 0.64 0.47 0.37 0.28 0.24 0.21 0.21 0.28 0.32 0.30 0.25 0.27 0.34 0.33 0.37
0.12 0.21 0.48 0.64 0.73 0.74 0.72 0.61 0.57 0.51 0.53 0.59 0.66 0.70 0.71 0.64 0.53 0.49 0.49 0.50 0.60 0.74 0.79 0.86 0.73 0.63 0.57 0.52 0.44 0.31 0.23 0.14 0.10 0.08 0.07 0.12 0.22 0.27 0.25 0.26 0.32 0.38 0.39
0.15 0.28 0.49 0.68 0.82 0.83 0.81 0.71 0.58 0.51 0.52 0.56 0.67 0.77 0.80 0.74 0.67 0.61 0.60 0.59 0.67 0.75 0.76 0.74 0.67 0.56 0.43 0.36 0.29 0.21 0.15 0.09 0.07 0.06 0.08 0.12 0.17 0.27 0.29 0.26 0.33 0.42 0.37
0.21 0.34 0.52 0.77 0.96 0.97 0.86 0.79 0.69 0.58 0.55 0.60 0.62 0.71 0.79 0.82 0.82 0.73 0.71 0.71 0.70 0.68 0.68 0.66 0.54 0.48 0.40 0.28 0.23 0.18 0.12 0.08 0.07 0.07 0.10 0.15 0.19 0.36 0.42 0.36 0.37 0.42 0.36
0.32 0.45 0.67 0.93 1.10 1.11 1.00 0.93 0.84 0.71 0.64 0.66 0.66 0.68 0.76 0.83 0.86 0.87 0.86 0.82 0.73 0.59 0.56 0.58 0.49 0.45 0.40 0.31 0.24 0.20 0.15 0.10 0.07 0.08 0.13 0.19 0.26 0.51 0.51 0.43 0.42 0.45 0.41
0.50 0.68 0.83 1.01 1.17 1.17 1.10 1.02 1.00 0.89 0.77 0.80 0.79 0.73 0.77 0.81 0.87 0.94 0.92 0.80 0.71 0.61 0.55 0.50 0.48 0.45 0.40 0.32 0.28 0.23 0.18 0.11 0.07 0.09 0.14 0.20 0.30 0.54 0.51 0.43 0.44 0.49 0.50
0.71 0.87 0.99 1.14 1.25 1.22 1.19 1.14 1.12 1.11 1.03 0.97 0.92 0.86 0.86 0.86 0.88 0.91 0.88 0.70 0.64 0.64 0.61 0.56 0.51 0.49 0.47 0.36 0.31 0.28 0.20 0.11 0.07 0.10 0.15 0.21 0.33 0.51 0.47 0.42 0.44 0.50 0.51
0.98 1.12 1.21 1.36 1.46 1.37 1.28 1.22 1.22 1.30 1.29 1.21 1.14 1.06 0.96 0.95 0.93 0.86 0.80 0.66 0.61 0.65 0.67 0.63 0.56 0.49 0.46 0.37 0.31 0.29 0.20 0.08 0.06 0.10 0.14 0.21 0.32 0.46 0.44 0.37 0.38 0.41 0.45
1.40 1.50 1.61 1.60 1.52 1.51 1.44 1.36 1.30 1.33 1.38 1.40 1.31 1.23 1.07 1.03 0.98 0.87 0.76 0.74 0.68 0.67 0.66 0.62 0.60 0.54 0.46 0.38 0.32 0.26 0.17 0.08 0.06 0.11 0.15 0.21 0.33 0.53 0.49 0.41 0.37 0.39 0.41
1.87 1.93 2.02 1.99 1.80 1.67 1.57 1.47 1.40 1.35 1.42 1.48 1.40 1.16 0.99 0.95 0.97 0.88 0.71 0.75 0.77 0.70 0.64 0.60 0.58 0.56 0.46 0.38 0.31 0.24 0.17 0.11 0.08 0.11 0.15 0.19 0.33 0.53 0.54 0.46 0.43 0.43 0.45
2.30 2.28 2.23 2.24 2.17 2.01 1.86 1.63 1.57 1.48 1.48 1.44 1.33 1.15 1.03 1.00 0.93 0.83 0.61 0.58 0.67 0.68 0.63 0.59 0.58 0.58 0.45 0.35 0.31 0.23 0.18 0.13 0.13 0.14 0.15 0.19 0.37 0.47 0.50 0.46 0.44 0.46 0.50
2.43 2.47 2.42 2.40 2.40 2.28 2.09 1.96 1.83 1.64 1.54 1.45 1.26 1.13 1.11 1.05 0.97 0.83 0.68 0.57 0.62 0.64 0.68 0.66 0.60 0.57 0.47 0.35 0.33 0.27 0.19 0.15 0.15 0.14 0.15 0.19 0.36 0.45 0.43 0.43 0.44 0.44 0.47
2.69 2.81 2.78 2.69 2.74 2.76 2.51 2.22 2.07 1.83 1.62 1.56 1.39 1.27 1.20 1.21 1.17 1.10 0.92 0.75 0.73 0.65 0.64 0.66 0.60 0.48 0.41 0.36 0.33 0.28 0.22 0.20 0.18 0.16 0.17 0.19 0.32 0.45 0.44 0.48 0.51 0.48 0.50
2.89 3.06 3.24 3.13 3.04 3.05 2.85 2.55 2.29 2.05 1.79 1.65 1.58 1.47 1.38 1.29 1.18 1.13 1.01 0.85 0.76 0.65 0.61 0.66 0.60 0.47 0.44 0.37 0.35 0.34 0.29 0.24 0.21 0.20 0.22 0.21 0.27 0.44 0.54 0.59 0.56 0.53 0.55
2.78 3.05 3.38 3.31 3.16 3.06 2.91 2.68 2.37 2.23 2.02 1.81 1.79 1.73 1.57 1.43 1.29 1.18 1.14 1.01 0.90 0.75 0.62 0.62 0.67 0.60 0.57 0.53 0.44 0.39 0.38 0.32 0.26 0.23 0.23 0.25 0.27 0.39 0.52 0.60 0.59 0.57 0.60
2.79 2.95 3.24 3.32 3.14 3.07 2.94 2.69 2.39 2.18 2.06 1.96 1.78 1.67 1.65 1.52 1.42 1.35 1.19 1.05 0.98 0.87 0.72 0.63 0.66 0.70 0.68 0.67 0.60 0.51 0.47 0.42 0.33 0.30 0.27 0.29 0.30 0.35 0.47 0.53 0.58 0.67 0.77
2.83 3.02 3.10 3.27 3.29 3.06 2.98 2.73 2.45 2.35 2.16 2.00 1.86 1.65 1.61 1.57 1.49 1.47 1.32 1.11 1.03 1.03 0.92 0.82 0.79 0.81 0.77 0.67 0.59 0.57 0.54 0.46 0.39 0.35 0.33 0.32 0.31 0.33 0.43 0.51 0.54 0.63 0.82
2.87 3.09 3.12 3.13 3.22 3.15 3.01 2.87 2.51 2.34 2.30 2.11 2.00 1.83 1.68 1.63 1.62 1.61 1.47 1.25 1.23 1.30 1.21 1.04 0.94 0.86 0.80 0.73 0.64 0.61 0.56 0.51 0.44 0.41 0.38 0.35 0.32 0.33 0.41 0.51 0.53 0.59 0.70
2.78 3.05 3.21 3.16 3.15 3.27 3.21 3.08 2.88 2.59 2.32 2.30 2.26 2.01 1.75 1.66 1.66 1.61 1.53 1.44 1.44 1.44 1.36 1.20 1.09 1.01 0.87 0.82 0.78 0.75 0.73 0.67 0.58 0.52 0.45 0.42 0.37 0.38 0.47 0.56 0.59 0.61 0.61
2.77 3.01 3.22 3.21 3.15 3.36 3.51 3.36 3.12 2.87 2.46 2.20 2.19 2.09 1.92 1.77 1.69 1.65 1.55 1.56 1.61 1.56 1.48 1.40 1.25 1.16 1.06 0.99 0.94 0.85 0.83 0.84 0.73 0.58 0.51 0.47 0.45 0.46 0.55 0.62 0.62 0.61 0.58
2.67 2.88 3.07 3.15 3.10 3.14 3.28 3.22 3.00 2.71 2.49 2.19 2.06 2.09 2.05 1.97 1.96 1.85 1.65 1.62 1.68 1.57 1.47 1.52 1.56 1.49 1.37 1.25 1.16 0.99 0.91 0.87 0.81 0.62 0.50 0.49 0.50 0.53 0.57 0.59 0.60 0.56 0.50
2.32 2.69 2.91 3.08 3.21 3.05 2.89 2.94 2.94 2.85 2.64 2.44 2.27 2.25 2.10 1.99 1.96 1.96 1.92 1.82 1.83 1.80 1.70 1.61 1.63 1.67 1.60 1.53 1.43 1.32 1.12 0.99 0.83 0.69 0.58 0.53 0.54 0.58 0.59 0.58 0.56 0.53 0.47
1.98 2.33 2.62 2.83 3.06 3.16 3.08 3.13 3.05 2.96 2.74 2.46 2.20 2.13 2.11 2.05 1.99 1.93 1.97 2.00 1.98 1.94 1.83 1.75 1.69 1.66 1.68 1.64 1.58 1.61 1.32 1.01 0.82 0.74 0.64 0.58 0.56 0.58 0.60 0.62 0.59 0.56 0.52
1.71 1.98 2.24 2.57 2.83 3.03 3.16 3.06 2.88 2.66 2.42 2.20 2.15 2.20 2.20 2.11 2.01 1.99 1.96 1.97 2.01 1.96 1.86 1.87 1.87 1.72 1.72 1.74 1.70 1.56 1.35 1.08 0.97 0.84 0.73 0.69 0.63 0.60 0.60 0.60 0.58 0.56 0.56
1.51 1.76 1.93 2.20 2.52 2.68 2.68 2.70 2.70 2.53 2.36 2.27 2.28 2.27 2.19 2.05 1.95 1.90 1.89 1.92 1.92 1.93 1.89 1.90 1.92 1.90 1.80 1.74 1.71 1.65 1.58 1.36 1.16 1.09 0.93 0.81 0.78 0.70 0.66 0.64 0.63 0.61 0.59
1.25 1.49 1.71 1.80 2.03 2.25 2.30 2.36 2.44 2.29 2.19 2.15 2.08 2.13 2.20 2.03 1.85 1.79 1.75 1.75 1.81 1.84 1.83 1.86 1.93 1.98 1.94 1.80 1.69 1.58 1.55 1.46 1.29 1.22 1.10 0.92 0.88 0.77 0.71 0.67 0.66 0.67 0.70

GEFSSE_prec_meanprecacc_252.txt.gz
Total_Precipitation_Accumulation
0.15 0.25 0.55 0.64 0.62 0.63 0.61 0.59 0.60 0.57 0.56 0.62 0.64 0.64 0.63 0.60 0.54 0.46 0.45 0.50 0.56 0.73 0.81 0.80 0.77 0.78 0.73 0.68 0.65 0.49 0.40 0.31 0.27 0.24 0.24 0.30 0.34 0.33 0.27 0.28 0.35 0.34 0.38
0.13 0.23 0.51 0.67 0.76 0.77 0.74 0.63 0.59 0.54 0.56 0.62 0.69 0.74 0.75 0.67 0.54 0.51 0.50 0.52 0.62 0.77 0.82 0.87 0.75 0.64 0.58 0.54 0.45 0.33 0.25 0.15 0.12 0.09 0.08 0.14 0.24 0.30 0.27 0.27 0.33 0.39 0.41
0.16 0.29 0.52 0.70 0.85 0.87 0.85 0.74 0.61 0.53 0.54 0.59 0.69 0.80 0.84 0.78 0.70 0.64 0.62 0.61 0.70 0.79 0.79 0.76 0.71 0.58 0.45 0.38 0.31 0.23 0.16 0.09 0.07 0.06 0.08 0.12 0.19 0.32 0.32 0.29 0.36 0.44 0.39
0.22 0.35 0.55 0.80 0.98 1.00 0.89 0.82 0.72 0.61 0.56 0.61 0.63 0.72 0.82 0.85 0.87 0.77 0.74 0.74 0.73 0.71 0.70 0.69 0.57 0.50 0.41 0.30 0.24 0.21 0.14 0.08 0.07 0.07 0.10 0.15 0.20 0.40 0.45 0.40 0.42 0.44 0.38
0.33 0.47 0.70 0.97 1.14 1.15 1.03 0.95 0.86 0.73 0.65 0.67 0.67 0.69 0.77 0.85 0.89 0.91 0.90 0.85 0.75 0.61 0.58 0.61 0.51 0.47 0.42 0.33 0.26 0.22 0.17 0.11 0.07 0.08 0.13 0.19 0.27 0.56 0.55 0.47 0.46 0.48 0.43
0.53 0.70 0.88 1.07 1.22 1.21 1.13 1.05 1.02 0.91 0.79 0.81 0.80 0.74 0.78 0.82 0.89 0.97 0.95 0.83 0.73 0.63 0.57 0.52 0.50 0.47 0.43 0.35 0.30 0.26 0.21 0.12 0.08 0.09 0.14 0.20 0.31 0.60 0.57 0.47 0.47 0.51 0.52
0.74 0.91 1.05 1.19 1.31 1.28 1.23 1.17 1.14 1.13 1.05 0.99 0.94 0.87 0.88 0.87 0.90 0.93 0.90 0.72 0.66 0.66 0.64 0.59 0.53 0.51 0.49 0.39 0.35 0.31 0.24 0.13 0.08 0.11 0.15 0.22 0.35 0.56 0.53 0.45 0.47 0.51 0.53
1.01 1.17 1.27 1.42 1.51 1.43 1.33 1.26 1.25 1.32 1.31 1.23 1.17 1.08 0.99 0.98 0.95 0.89 0.83 0.68 0.64 0.67 0.71 0.67 0.59 0.52 0.49 0.41 0.37 0.34 0.25 0.11 0.08 0.10 0.15 0.22 0.34 0.50 0.48 0.40 0.41 0.44 0.48
1.42 1.54 1.67 1.67 1.59 1.58 1.51 1.42 1.35 1.37 1.40 1.42 1.33 1.25 1.11 1.07 1.01 0.89 0.79 0.77 0.71 0.70 0.69 0.66 0.64 0.57 0.49 0.42 0.35 0.30 0.20 0.10 0.08 0.12 0.16 0.22 0.34 0.58 0.54 0.44 0.41 0.42 0.45
1.90 1.96 2.06 2.05 1.87 1.75 1.65 1.55 1.47 1.41 1.46 1.52 1.42 1.19 1.01 0.98 1.00 0.91 0.73 0.77 0.79 0.73 0.67 0.62 0.62 0.61 0.49 0.41 0.34 0.27 0.19 0.13 0.10 0.12 0.16 0.20 0.35 0.59 0.61 0.51 0.47 0.47 0.48
2.33 2.32 2.27 2.29 2.22 2.08 1.94 1.70 1.64 1.54 1.53 1.47 1.35 1.18 1.06 1.02 0.95 0.85 0.63 0.59 0.69 0.70 0.66 0.62 0.60 0.61 0.48 0.37 0.33 0.25 0.20 0.15 0.15 0.15 0.17 0.21 0.40 0.52 0.56 0.52 0.50 0.51 0.53
2.46 2.51 2.46 2.44 2.44 2.33 2.15 2.02 1.89 1.71 1.60 1.49 1.29 1.16 1.14 1.06 0.98 0.83 0.69 0.57 0.63 0.65 0.70 0.69 0.62 0.59 0.50 0.36 0.34 0.29 0.21 0.16 0.16 0.17 0.18 0.23 0.40 0.49 0.49 0.50 0.50 0.48 0.51
2.73 2.84 2.82 2.73 2.78 2.79 2.56 2.27 2.12 1.89 1.68 1.62 1.43 1.30 1.22 1.22 1.18 1.10 0.92 0.75 0.73 0.66 0.66 0.67 0.62 0.49 0.43 0.36 0.35 0.30 0.23 0.22 0.20 0.19 0.20 0.22 0.36 0.50 0.51 0.54 0.57 0.52 0.53
2.92 3.10 3.29 3.18 3.08 3.10 2.89 2.60 2.33 2.10 1.84 1.70 1.63 1.51 1.40 1.30 1.19 1.14 1.02 0.86 0.77 0.66 0.62 0.67 0.61 0.49 0.45 0.38 0.36 0.35 0.31 0.26 0.23 0.23 0.25 0.24 0.31 0.49 0.60 0.66 0.64 0.59 0.59
2.81 3.09 3.43 3.37 3.21 3.11 2.95 2.71 2.40 2.27 2.07 1.86 1.84 1.78 1.60 1.46 1.31 1.20 1.15 1.03 0.92 0.77 0.63 0.63 0.68 0.61 0.59 0.54 0.45 0.40 0.39 0.33 0.28 0.27 0.26 0.28 0.30 0.43 0.58 0.67 0.65 0.64 0.65
2.81 2.99 3.30 3.39 3.20 3.12 2.98 2.72 2.41 2.20 2.09 2.01 1.83 1.72 1.70 1.56 1.45 1.37 1.22 1.07 1.00 0.89 0.74 0.64 0.67 0.71 0.70 0.68 0.61 0.52 0.50 0.43 0.34 0.33 0.30 0.31 0.34 0.40 0.53 0.59 0.64 0.73 0.82
2.84 3.05 3.15 3.34 3.37 3.12 3.03 2.76 2.46 2.37 2.18 2.03 1.89 1.70 1.65 1.61 1.53 1.50 1.35 1.13 1.05 1.05 0.95 0.84 0.81 0.83 0.78 0.68 0.59 0.57 0.56 0.49 0.41 0.38 0.35 0.34 0.34 0.37 0.47 0.57 0.59 0.68 0.87
2.88 3.10 3.15 3.19 3.31 3.23 3.07 2.93 2.54 2.35 2.32 2.14 2.03 1.86 1.71 1.66 1.65 1.65 1.52 1.28 1.27 1.35 1.25 1.08 0.97 0.89 0.82 0.75 0.65 0.62 0.58 0.53 0.46 0.43 0.40 0.37 0.34 0.36 0.44 0.55 0.58 0.64 0.76
2.78 3.06 3.23 3.21 3.23 3.39 3.31 3.16 2.95 2.62 2.34 2.32 2.28 2.04 1.78 1.69 1.68 1.64 1.56 1.47 1.48 1.48 1.40 1.25 1.14 1.06 0.92 0.86 0.81 0.78 0.76 0.70 0.61 0.54 0.48 0.45 0.39 0.39 0.49 0.60 0.64 0.68 0.68
2.77 3.01 3.23 3.24 3.21 3.46 3.65 3.50 3.23 2.94 2.50 2.24 2.23 2.12 1.95 1.79 1.71 1.66 1.57 1.58 1.64 1.59 1.51 1.44 1.30 1.21 1.12 1.05 1.00 0.91 0.90 0.89 0.77 0.62 0.53 0.50 0.47 0.48 0.56 0.64 0.66 0.67 0.68
2.67 2.89 3.08 3.16 3.14 3.21 3.40 3.37 3.10 2.79 2.56 2.24 2.10 2.13 2.08 2.00 1.98 1.87 1.66 1.64 1.69 1.59 1.49 1.55 1.59 1.54 1.43 1.31 1.24 1.07 0.99 0.94 0.85 0.66 0.53 0.51 0.52 0.55 0.59 0.63 0.65 0.61 0.55
2.32 2.70 2.92 3.09 3.23 3.10 2.98 3.10 3.10 2.96 2.73 2.50 2.32 2.29 2.15 2.04 1.99 1.99 1.95 1.84 1.85 1.82 1.73 1.64 1.66 1.71 1.65 1.58 1.50 1.42 1.21 1.07 0.88 0.73 0.61 0.56 0.56 0.61 0.62 0.61 0.59 0.59 0.52
1.98 2.34 2.63 2.84 3.07 3.18 3.13 3.25 3.25 3.13 2.86 2.57 2.31 2.18 2.15 2.09 2.04 1.97 2.01 2.04 2.01 1.98 1.87 1.78 1.71 1.69 1.72 1.68 1.62 1.67 1.38 1.07 0.87 0.77 0.67 0.61 0.59 0.60 0.62 0.64 0.61 0.59 0.54
1.72 1.98 2.24 2.58 2.84 3.04 3.18 3.13 3.03 2.89 2.61 2.33 2.26 2.29 2.25 2.15 2.05 2.03 2.00 2.01 2.06 2.01 1.92 1.91 1.90 1.76 1.76 1.77 1.74 1.60 1.38 1.11 1.01 0.88 0.77 0.72 0.66 0.62 0.62 0.62 0.59 0.57 0.57
1.51 1.77 1.94 2.21 2.53 2.69 2.69 2.73 2.78 2.72 2.58 2.46 2.42 2.37 2.27 2.11 2.01 1.95 1.94 1.95 1.96 1.97 1.95 1.96 1.98 1.94 1.84 1.78 1.74 1.69 1.62 1.39 1.19 1.12 0.97 0.85 0.82 0.74 0.69 0.66 0.65 0.63 0.60
1.27 1.51 1.72 1.81 2.04 2.27 2.31 2.38 2.48 2.40 2.38 2.37 2.29 2.29 2.30 2.10 1.91 1.86 1.83 1.80 1.85 1.87 1.89 1.94 2.00 2.03 1.98 1.83 1.72 1.62 1.58 1.50 1.33 1.26 1.15 0.97 0.93 0.82 0.76 0.73 0.70 0.70 0.72

GEFSSE_prec_meanprecacc_258.txt.gz
Total_Precipitation_Accumulation
0.16 0.26 0.57 0.67 0.65 0.66 0.63 0.62 0.62 0.59 0.59 0.67 0.70 0.68 0.66 0.62 0.56 0.48 0.48 0.53 0.59 0.77 0.84 0.83 0.79 0.80 0.76 0.71 0.68 0.51 0.42 0.34 0.30 0.26 0.25 0.32 0.36 0.34 0.27 0.28 0.36 0.35 0.40
0.14 0.24 0.53 0.71 0.79 0.79 0.77 0.66 0.61 0.56 0.58 0.65 0.73 0.77 0.79 0.71 0.57 0.53 0.52 0.55 0.66 0.81 0.85 0.91 0.79 0.67 0.61 0.56 0.48 0.34 0.26 0.17 0.13 0.11 0.09 0.15 0.26 0.32 0.28 0.27 0.34 0.40 0.42
0.18 0.31 0.54 0.74 0.90 0.90 0.88 0.77 0.64 0.55 0.57 0.62 0.73 0.82 0.87 0.81 0.74 0.66 0.64 0.64 0.74 0.83 0.82 0.79 0.74 0.62 0.48 0.40 0.33 0.25 0.17 0.10 0.08 0.07 0.09 0.13 0.21 0.34 0.34 0.30 0.37 0.46 0.40
0.24 0.38 0.57 0.84 1.03 1.05 0.92 0.84 0.75 0.63 0.59 0.64 0.66 0.75 0.85 0.88 0.89 0.80 0.77 0.76 0.76 0.74 0.73 0.71 0.59 0.53 0.44 0.32 0.26 0.23 0.15 0.09 0.08 0.07 0.11 0.16 0.21 0.43 0.49 0.43 0.45 0.46 0.40
0.35 0.49 0.73 1.01 1.19 1.20 1.07 0.98 0.89 0.76 0.68 0.69 0.70 0.72 0.80 0.87 0.91 0.93 0.94 0.88 0.77 0.63 0.60 0.62 0.52 0.48 0.44 0.35 0.28 0.24 0.19 0.12 0.08 0.08 0.14 0.20 0.29 0.60 0.59 0.52 0.50 0.50 0.44
0.54 0.73 0.91 1.11 1.28 1.27 1.18 1.10 1.05 0.94 0.82 0.85 0.83 0.77 0.81 0.84 0.91 0.99 0.96 0.85 0.76 0.65 0.59 0.54 0.51 0.49 0.45 0.37 0.32 0.28 0.23 0.14 0.08 0.10 0.15 0.21 0.33 0.64 0.62 0.52 0.52 0.53 0.54
0.76 0.93 1.08 1.24 1.37 1.34 1.29 1.24 1.19 1.17 1.09 1.03 0.97 0.90 0.90 0.90 0.92 0.95 0.91 0.74 0.68 0.68 0.66 0.61 0.55 0.54 0.52 0.42 0.38 0.33 0.26 0.15 0.09 0.12 0.16 0.23 0.38 0.60 0.58 0.51 0.50 0.54 0.56
1.04 1.20 1.30 1.47 1.57 1.50 1.40 1.33 1.32 1.38 1.36 1.28 1.21 1.12 1.03 1.01 0.98 0.91 0.84 0.70 0.65 0.70 0.73 0.70 0.62 0.55 0.52 0.44 0.40 0.37 0.27 0.12 0.09 0.11 0.16 0.24 0.37 0.53 0.52 0.44 0.46 0.49 0.53
1.44 1.57 1.71 1.71 1.64 1.65 1.59 1.50 1.43 1.44 1.46 1.48 1.38 1.31 1.17 1.11 1.04 0.92 0.81 0.79 0.73 0.72 0.72 0.69 0.68 0.60 0.52 0.45 0.38 0.33 0.22 0.11 0.09 0.13 0.17 0.23 0.36 0.61 0.60 0.50 0.46 0.46 0.49
1.92 2.00 2.11 2.10 1.92 1.81 1.71 1.64 1.57 1.51 1.54 1.58 1.47 1.23 1.07 1.03 1.03 0.93 0.74 0.78 0.81 0.76 0.70 0.65 0.65 0.64 0.52 0.43 0.35 0.29 0.21 0.14 0.11 0.14 0.17 0.21 0.37 0.63 0.67 0.59 0.54 0.51 0.51
2.36 2.37 2.33 2.36 2.29 2.13 1.99 1.75 1.73 1.67 1.66 1.57 1.43 1.24 1.12 1.09 0.99 0.87 0.63 0.59 0.69 0.72 0.68 0.64 0.62 0.65 0.51 0.39 0.35 0.27 0.21 0.16 0.16 0.17 0.18 0.23 0.43 0.57 0.62 0.59 0.57 0.56 0.58
2.49 2.56 2.52 2.51 2.51 2.39 2.20 2.07 1.95 1.78 1.72 1.59 1.35 1.22 1.20 1.13 1.03 0.86 0.70 0.59 0.64 0.66 0.71 0.70 0.64 0.62 0.54 0.39 0.36 0.30 0.22 0.18 0.18 0.18 0.19 0.25 0.43 0.53 0.54 0.56 0.58 0.55 0.56
2.75 2.88 2.86 2.79 2.85 2.87 2.62 2.34 2.20 1.97 1.76 1.73 1.49 1.34 1.25 1.27 1.24 1.15 0.95 0.78 0.75 0.67 0.66 0.68 0.63 0.51 0.46 0.40 0.37 0.30 0.24 0.23 0.22 0.21 0.22 0.24 0.39 0.54 0.56 0.60 0.63 0.60 0.59
2.95 3.12 3.32 3.23 3.15 3.17 2.96 2.65 2.39 2.18 1.92 1.78 1.71 1.55 1.42 1.33 1.23 1.17 1.05 0.88 0.79 0.67 0.63 0.67 0.62 0.50 0.47 0.40 0.38 0.36 0.32 0.27 0.26 0.28 0.29 0.28 0.35 0.55 0.66 0.72 0.70 0.65 0.65
2.82 3.12 3.46 3.41 3.28 3.19 3.04 2.78 2.46 2.32 2.13 1.93 1.92 1.85 1.64 1.48 1.34 1.23 1.18 1.06 0.95 0.79 0.64 0.64 0.69 0.62 0.60 0.56 0.47 0.41 0.40 0.35 0.31 0.30 0.31 0.33 0.35 0.50 0.66 0.74 0.73 0.71 0.71
2.82 3.00 3.32 3.42 3.26 3.20 3.07 2.81 2.48 2.24 2.14 2.08 1.89 1.80 1.78 1.60 1.48 1.40 1.25 1.10 1.02 0.91 0.75 0.65 0.67 0.72 0.71 0.69 0.62 0.53 0.51 0.44 0.36 0.35 0.33 0.35 0.38 0.44 0.58 0.67 0.72 0.82 0.90
2.85 3.05 3.17 3.36 3.41 3.18 3.11 2.86 2.55 2.43 2.23 2.08 1.96 1.76 1.74 1.70 1.59 1.55 1.40 1.18 1.08 1.07 0.97 0.86 0.82 0.83 0.78 0.68 0.60 0.58 0.57 0.51 0.43 0.40 0.37 0.36 0.37 0.40 0.51 0.63 0.67 0.77 0.97
2.89 3.11 3.16 3.20 3.33 3.28 3.15 3.03 2.64 2.42 2.38 2.19 2.08 1.92 1.78 1.76 1.74 1.71 1.56 1.34 1.32 1.39 1.28 1.11 0.99 0.90 0.83 0.75 0.65 0.63 0.59 0.53 0.47 0.45 0.42 0.38 0.36 0.38 0.47 0.60 0.64 0.72 0.85
2.79 3.06 3.24 3.21 3.24 3.42 3.38 3.26 3.07 2.70 2.40 2.36 2.33 2.09 1.82 1.75 1.76 1.72 1.63 1.53 1.53 1.54 1.46 1.31 1.19 1.10 0.95 0.87 0.81 0.78 0.77 0.71 0.63 0.55 0.49 0.46 0.41 0.41 0.52 0.63 0.68 0.74 0.75
2.78 3.02 3.24 3.24 3.21 3.48 3.70 3.59 3.36 3.07 2.58 2.29 2.26 2.15 1.99 1.83 1.75 1.72 1.62 1.63 1.68 1.64 1.56 1.49 1.34 1.25 1.16 1.09 1.03 0.92 0.91 0.90 0.79 0.63 0.55 0.52 0.49 0.50 0.60 0.67 0.70 0.71 0.72
2.68 2.89 3.09 3.17 3.14 3.22 3.43 3.44 3.22 2.93 2.67 2.30 2.13 2.15 2.11 2.03 2.01 1.90 1.70 1.67 1.73 1.63 1.53 1.58 1.62 1.57 1.47 1.35 1.27 1.10 1.01 0.95 0.87 0.68 0.54 0.52 0.54 0.57 0.62 0.65 0.67 0.63 0.57
2.34 2.71 2.92 3.09 3.24 3.10 2.99 3.13 3.18 3.08 2.87 2.60 2.37 2.32 2.17 2.07 2.02 2.01 1.97 1.86 1.87 1.85 1.77 1.68 1.70 1.74 1.68 1.62 1.55 1.46 1.24 1.09 0.89 0.74 0.62 0.57 0.58 0.63 0.64 0.63 0.61 0.60 0.53
2.00 2.35 2.64 2.84 3.08 3.18 3.13 3.26 3.31 3.25 3.02 2.72 2.41 2.26 2.19 2.12 2.06 1.99 2.03 2.05 2.02 1.99 1.88 1.81 1.76 1.73 1.76 1.71 1.66 1.72 1.43 1.11 0.89 0.79 0.68 0.63 0.61 0.62 0.64 0.66 0.63 0.60 0.55
1.74 2.00 2.26 2.58 2.84 3.05 3.19 3.13 3.06 3.00 2.76 2.49 2.39 2.39 2.33 2.21 2.09 2.06 2.02 2.02 2.07 2.02 1.92 1.93 1.93 1.79 1.80 1.80 1.77 1.63 1.41 1.14 1.04 0.91 0.79 0.74 0.69 0.65 0.64 0.63 0.61 0.59 0.58
1.54 1.79 1.95 2.22 2.54 2.70 2.70 2.74 2.80 2.78 2.71 2.61 2.59 2.50 2.37 2.19 2.06 1.99 1.98 1.98 1.98 1.99 1.96 1.97 1.99 1.96 1.87 1.81 1.77 1.72 1.65 1.42 1.22 1.15 1.00 0.88 0.86 0.78 0.72 0.69 0.67 0.65 0.62
1.29 1.53 1.75 1.84 2.06 2.29 2.33 2.40 2.50 2.43 2.46 2.48 2.45 2.47 2.44 2.20 1.98 1.91 1.87 1.85 1.88 1.90 1.91 1.95 2.01 2.05 2.00 1.86 1.75 1.64 1.60 1.52 1.36 1.30 1.18 1.01 0.97 0.86 0.81 0.77 0.74 0.74 0.75

GEFSSE_prec_meanprecacc_264.txt.gz
Total_Precipitation_Accumulation
0.18 0.28 0.62 0.73 0.70 0.71 0.69 0.66 0.65 0.62 0.63 0.70 0.73 0.72 0.70 0.65 0.59 0.51 0.50 0.55 0.61 0.80 0.88 0.86 0.83 0.83 0.78 0.73 0.69 0.53 0.44 0.35 0.31 0.27 0.26 0.33 0.37 0.36 0.29 0.30 0.38 0.36 0.42
0.16 0.25 0.56 0.76 0.84 0.84 0.82 0.72 0.66 0.60 0.62 0.69 0.77 0.80 0.82 0.74 0.62 0.57 0.56 0.57 0.69 0.84 0.89 0.94 0.82 0.70 0.63 0.58 0.49 0.35 0.27 0.19 0.14 0.12 0.10 0.15 0.27 0.33 0.29 0.28 0.36 0.42 0.43
0.20 0.32 0.56 0.79 0.95 0.97 0.94 0.83 0.70 0.61 0.61 0.65 0.77 0.86 0.90 0.84 0.77 0.70 0.67 0.67 0.77 0.85 0.85 0.83 0.79 0.66 0.49 0.41 0.34 0.26 0.19 0.12 0.09 0.08 0.10 0.15 0.22 0.35 0.35 0.31 0.39 0.47 0.42
0.26 0.40 0.60 0.88 1.08 1.11 0.99 0.92 0.82 0.69 0.64 0.67 0.69 0.78 0.88 0.90 0.91 0.83 0.81 0.81 0.80 0.77 0.76 0.75 0.63 0.56 0.46 0.33 0.27 0.24 0.16 0.11 0.09 0.09 0.13 0.19 0.23 0.45 0.51 0.45 0.47 0.48 0.42
0.37 0.51 0.76 1.04 1.23 1.26 1.14 1.05 0.95 0.81 0.72 0.72 0.73 0.74 0.82 0.90 0.94 0.97 0.99 0.93 0.82 0.66 0.63 0.65 0.56 0.51 0.47 0.37 0.29 0.25 0.20 0.14 0.09 0.11 0.18 0.24 0.33 0.65 0.63 0.55 0.53 0.52 0.46
0.56 0.74 0.93 1.15 1.32 1.32 1.25 1.16 1.11 0.99 0.87 0.89 0.87 0.81 0.84 0.87 0.94 1.03 1.02 0.90 0.81 0.68 0.62 0.56 0.54 0.51 0.47 0.39 0.33 0.29 0.24 0.16 0.10 0.13 0.19 0.25 0.38 0.70 0.66 0.57 0.55 0.55 0.55
0.77 0.95 1.10 1.27 1.41 1.38 1.34 1.30 1.25 1.22 1.14 1.08 1.02 0.95 0.95 0.93 0.96 0.99 0.95 0.78 0.73 0.72 0.68 0.64 0.59 0.56 0.54 0.43 0.39 0.34 0.26 0.16 0.11 0.15 0.19 0.26 0.42 0.64 0.62 0.55 0.54 0.57 0.58
1.06 1.22 1.32 1.49 1.60 1.53 1.43 1.37 1.36 1.42 1.40 1.33 1.25 1.16 1.08 1.08 1.05 0.96 0.88 0.73 0.69 0.73 0.76 0.72 0.65 0.58 0.54 0.46 0.41 0.38 0.27 0.13 0.10 0.13 0.18 0.27 0.40 0.57 0.57 0.49 0.50 0.55 0.59
1.46 1.59 1.73 1.73 1.67 1.68 1.62 1.53 1.47 1.48 1.51 1.52 1.42 1.34 1.22 1.18 1.11 0.97 0.85 0.82 0.75 0.75 0.74 0.71 0.70 0.62 0.54 0.47 0.40 0.35 0.23 0.12 0.10 0.15 0.19 0.26 0.40 0.66 0.66 0.56 0.50 0.51 0.54
1.94 2.02 2.13 2.13 1.95 1.84 1.74 1.67 1.61 1.54 1.58 1.63 1.52 1.27 1.10 1.08 1.09 0.99 0.79 0.81 0.83 0.78 0.72 0.67 0.67 0.66 0.54 0.45 0.38 0.33 0.23 0.15 0.13 0.16 0.20 0.25 0.41 0.69 0.73 0.63 0.58 0.55 0.56
2.39 2.39 2.35 2.39 2.33 2.18 2.02 1.79 1.77 1.71 1.69 1.61 1.48 1.29 1.16 1.14 1.05 0.93 0.69 0.64 0.73 0.74 0.70 0.65 0.64 0.66 0.53 0.40 0.36 0.28 0.22 0.18 0.18 0.19 0.21 0.27 0.48 0.63 0.67 0.64 0.61 0.60 0.61
2.51 2.58 2.55 2.55 2.55 2.44 2.26 2.13 2.01 1.82 1.76 1.63 1.39 1.26 1.26 1.19 1.10 0.92 0.76 0.64 0.69 0.70 0.74 0.72 0.65 0.62 0.54 0.41 0.37 0.30 0.23 0.19 0.19 0.20 0.21 0.27 0.48 0.60 0.62 0.63 0.64 0.60 0.60
2.77 2.90 2.89 2.82 2.88 2.90 2.67 2.40 2.27 2.03 1.82 1.79 1.55 1.39 1.29 1.33 1.31 1.21 1.01 0.84 0.81 0.71 0.70 0.71 0.65 0.52 0.47 0.42 0.39 0.32 0.26 0.24 0.23 0.22 0.23 0.27 0.43 0.58 0.61 0.66 0.69 0.66 0.65
2.96 3.14 3.35 3.26 3.19 3.20 2.99 2.69 2.45 2.24 1.98 1.85 1.80 1.61 1.47 1.37 1.29 1.24 1.09 0.93 0.84 0.72 0.67 0.71 0.65 0.52 0.48 0.42 0.40 0.39 0.34 0.30 0.27 0.29 0.30 0.30 0.38 0.58 0.71 0.78 0.76 0.70 0.70
2.83 3.13 3.48 3.44 3.32 3.23 3.07 2.81 2.50 2.38 2.19 1.99 2.00 1.93 1.70 1.52 1.38 1.30 1.25 1.10 0.99 0.83 0.68 0.67 0.72 0.65 0.63 0.58 0.49 0.43 0.42 0.37 0.32 0.31 0.32 0.35 0.38 0.54 0.71 0.81 0.80 0.76 0.76
2.83 3.01 3.34 3.45 3.29 3.24 3.10 2.83 2.50 2.29 2.20 2.13 1.96 1.86 1.83 1.65 1.52 1.44 1.33 1.17 1.07 0.95 0.79 0.68 0.70 0.74 0.73 0.71 0.63 0.55 0.53 0.46 0.38 0.36 0.34 0.37 0.40 0.46 0.62 0.73 0.79 0.87 0.95
2.85 3.07 3.18 3.39 3.44 3.22 3.15 2.89 2.57 2.46 2.28 2.14 2.02 1.83 1.80 1.74 1.62 1.58 1.45 1.26 1.14 1.12 1.00 0.90 0.85 0.86 0.80 0.69 0.61 0.59 0.58 0.52 0.44 0.42 0.39 0.38 0.39 0.42 0.53 0.66 0.72 0.83 1.02
2.89 3.12 3.17 3.22 3.35 3.31 3.19 3.06 2.66 2.45 2.41 2.23 2.12 1.97 1.83 1.80 1.77 1.75 1.61 1.40 1.41 1.46 1.33 1.15 1.03 0.93 0.85 0.77 0.66 0.64 0.60 0.55 0.47 0.46 0.44 0.40 0.38 0.39 0.49 0.63 0.67 0.77 0.91
2.79 3.07 3.25 3.23 3.26 3.44 3.41 3.29 3.10 2.74 2.43 2.40 2.36 2.12 1.87 1.79 1.80 1.75 1.67 1.57 1.61 1.63 1.54 1.38 1.25 1.16 0.99 0.90 0.83 0.80 0.78 0.72 0.64 0.56 0.50 0.49 0.44 0.44 0.55 0.67 0.73 0.77 0.78
2.78 3.03 3.25 3.25 3.23 3.50 3.73 3.62 3.40 3.12 2.62 2.34 2.30 2.19 2.02 1.87 1.79 1.75 1.66 1.66 1.73 1.70 1.63 1.57 1.41 1.32 1.23 1.16 1.09 0.95 0.93 0.91 0.80 0.65 0.56 0.54 0.54 0.56 0.65 0.72 0.73 0.73 0.75
2.69 2.90 3.09 3.18 3.16 3.24 3.45 3.46 3.26 2.98 2.72 2.36 2.19 2.19 2.15 2.07 2.04 1.94 1.74 1.71 1.77 1.67 1.56 1.62 1.67 1.63 1.54 1.42 1.36 1.17 1.05 0.97 0.88 0.69 0.56 0.55 0.57 0.62 0.66 0.70 0.72 0.66 0.59
2.34 2.71 2.93 3.10 3.25 3.12 3.00 3.14 3.20 3.12 2.92 2.66 2.43 2.37 2.22 2.11 2.06 2.05 2.02 1.90 1.91 1.89 1.80 1.72 1.74 1.78 1.72 1.69 1.64 1.54 1.31 1.14 0.92 0.75 0.63 0.58 0.59 0.65 0.66 0.65 0.64 0.63 0.56
2.01 2.36 2.65 2.85 3.09 3.20 3.15 3.28 3.33 3.26 3.05 2.78 2.49 2.33 2.24 2.17 2.12 2.03 2.06 2.09 2.06 2.02 1.91 1.83 1.78 1.77 1.80 1.76 1.71 1.80 1.52 1.17 0.93 0.81 0.69 0.63 0.62 0.63 0.65 0.67 0.65 0.62 0.58
1.76 2.02 2.27 2.60 2.86 3.07 3.21 3.15 3.07 3.01 2.78 2.53 2.46 2.50 2.41 2.27 2.15 2.11 2.06 2.06 2.12 2.06 1.95 1.95 1.94 1.81 1.83 1.85 1.82 1.68 1.48 1.22 1.12 0.97 0.83 0.76 0.69 0.66 0.65 0.65 0.62 0.60 0.61
1.56 1.80 1.97 2.24 2.55 2.72 2.73 2.76 2.81 2.79 2.72 2.64 2.63 2.58 2.50 2.29 2.13 2.06 2.03 2.03 2.02 2.03 2.00 2.00 2.01 1.98 1.89 1.84 1.80 1.76 1.69 1.48 1.28 1.21 1.06 0.93 0.89 0.80 0.73 0.70 0.68 0.66 0.63
1.31 1.54 1.76 1.85 2.08 2.31 2.36 2.42 2.51 2.45 2.47 2.51 2.50 2.53 2.55 2.35 2.08 1.98 1.93 1.90 1.93 1.94 1.94 1.98 2.04 2.07 2.02 1.89 1.78 1.67 1.64 1.57 1.41 1.35 1.23 1.05 1.02 0.92 0.85 0.80 0.76 0.75 0.76